ECMWFFLT1_925_spd_000.txt.gz
Wind_Speed
7 7 7 6 6 6 7 9 11 12 15 16 14 11 8 5 3 3 3 4 6 7 9 10 9 8 7 9 10 12 13 14 14 14 15 15 15 15 14 13 12 13 14 15 15 15 15 14 14 14 14 15 17 18 19 19 20 21 21 22 23 23 22
8 8 8 6 6 6 7 9 10 13 16 16 14 11 9 7 6 4 4 5 6 8 9 10 9 8 8 9 10 10 10 11 13 14 15 16 16 15 14 14 12 11 12 13 14 15 15 15 14 15 16 16 17 18 19 20 20 21 22 22 22 23 24
9 9 8 7 7 6 7 9 10 13 17 17 15 13 11 9 7 5 5 5 6 8 9 9 9 9 10 10 10 9 9 9 10 12 13 14 15 15 14 13 12 12 12 12 13 14 14 14 14 14 15 16 17 18 19 19 20 20 21 22 23 24 25
10 10 8 7 6 6 7 10 11 14 17 17 15 13 11 9 6 6 6 7 7 8 9 9 9 10 10 10 10 9 8 8 8 10 11 12 13 14 14 12 11 12 13 13 13 13 13 14 14 15 16 18 19 19 19 19 19 20 20 21 22 24 26
11 10 7 6 6 5 6 10 12 15 17 17 15 13 11 8 7 7 8 8 9 9 8 8 9 10 10 10 10 9 8 8 8 10 12 13 14 14 13 12 11 12 13 14 14 13 13 14 16 17 18 20 20 20 20 20 19 19 20 20 21 23 24
11 10 8 7 7 6 7 10 14 17 18 18 16 14 11 9 9 10 9 9 10 9 8 9 10 10 9 9 9 9 8 8 9 10 13 15 15 15 13 11 10 12 13 14 14 14 14 15 17 18 19 20 21 20 20 21 21 20 20 20 21 22 23
11 10 8 7 7 7 7 11 14 16 17 17 16 14 12 12 12 11 11 11 10 9 9 9 10 9 9 9 9 9 8 9 10 10 13 16 17 16 13 12 12 13 14 14 14 15 15 16 17 18 19 20 20 20 22 22 23 23 22 21 21 22 23
11 10 9 8 8 7 8 11 14 16 16 16 16 16 14 14 14 13 12 12 10 9 9 10 10 9 8 9 9 9 9 10 11 11 14 16 17 17 15 14 14 15 16 16 15 15 16 17 18 19 19 20 20 21 23 24 25 25 25 23 23 24 24
9 7 8 8 8 8 10 13 14 16 16 15 16 16 16 17 16 15 13 12 11 11 10 10 10 9 8 9 10 10 10 11 12 12 14 15 16 17 16 15 15 15 16 16 16 16 16 16 18 20 21 20 21 22 24 26 26 26 25 25 25 25 26
7 7 7 7 7 7 9 10 11 14 15 15 16 18 19 19 17 15 14 12 12 11 10 10 9 9 9 9 11 11 11 12 13 13 14 15 15 16 16 16 15 15 16 16 16 16 17 17 18 21 23 23 24 24 25 26 27 27 27 26 26 27 28
7 8 7 8 7 6 6 7 10 13 15 16 18 20 20 19 17 15 14 13 12 11 10 10 9 10 10 10 11 12 12 13 14 14 14 15 15 16 16 16 15 15 15 16 17 18 18 18 19 21 24 25 26 26 26 27 27 28 28 27 27 28 28
8 8 9 10 8 7 6 7 9 13 15 17 19 21 21 20 18 15 14 13 12 11 10 10 10 11 11 11 11 12 13 14 14 14 14 16 17 17 17 17 17 16 16 16 18 19 19 19 20 23 25 25 25 26 26 29 29 26 24 25 25 27 28
8 8 9 9 8 7 6 6 8 13 16 19 20 21 21 19 17 14 13 13 12 11 10 10 11 12 12 12 12 12 13 14 14 14 15 16 17 18 18 18 18 18 18 18 19 19 18 18 20 23 24 24 25 25 25 28 28 23 22 24 26 28 30
8 8 8 8 8 8 8 7 8 11 16 19 20 20 20 17 15 13 13 13 12 11 10 11 11 12 12 13 12 13 13 14 14 15 15 16 17 18 18 19 19 19 20 20 20 19 18 18 19 21 22 23 23 23 25 27 26 22 22 26 29 31 33
10 10 9 9 8 8 9 8 8 11 16 19 19 19 18 16 13 13 14 15 13 12 11 11 12 12 12 13 13 14 14 14 15 15 16 16 17 17 17 18 19 20 21 21 20 19 18 17 19 20 21 22 21 21 24 25 23 21 22 26 31 34 35
12 11 11 10 9 8 9 9 9 12 16 17 18 18 17 15 14 14 16 16 15 13 12 11 12 12 12 13 13 13 14 15 15 15 16 16 17 17 17 18 19 20 21 21 19 19 18 18 19 19 20 21 20 19 21 22 20 20 22 26 32 34 34
13 12 11 10 9 8 8 8 8 11 14 17 19 19 16 15 15 15 16 17 16 15 13 12 12 12 12 13 12 12 13 14 15 15 16 17 18 18 18 18 19 20 21 20 19 19 19 19 19 18 18 19 18 17 18 20 19 17 21 27 31 32 31
13 12 11 10 9 9 9 8 9 12 16 19 20 18 16 15 16 17 18 18 17 16 14 13 13 13 14 14 13 13 14 15 16 16 16 16 17 18 18 18 18 19 19 19 18 18 18 18 18 17 17 16 15 15 17 19 18 16 21 27 29 29 29
14 13 12 11 10 10 10 11 13 17 20 21 19 17 16 17 18 18 18 17 17 15 15 15 15 15 16 15 15 15 15 16 18 19 17 16 17 18 18 18 18 18 18 17 17 17 18 18 17 17 16 14 13 12 12 16 17 17 22 25 26 27 27
14 13 11 10 10 10 10 13 17 20 23 22 18 16 16 17 19 19 18 16 16 15 15 16 16 17 18 17 17 17 16 17 19 19 17 15 17 18 18 17 17 16 16 15 15 17 18 17 16 16 15 14 13 13 11 13 15 17 21 23 25 25 24
11 11 10 9 8 9 11 15 18 20 21 20 17 17 18 19 20 19 18 17 17 16 17 18 18 19 19 19 19 18 17 18 19 18 16 16 18 19 17 16 16 16 15 15 15 16 16 15 15 15 15 15 14 14 13 12 13 15 19 21 22 23 23
11 10 10 11 12 13 17 21 23 23 22 19 18 19 20 21 21 21 20 19 18 18 18 19 19 20 20 19 19 18 18 18 18 16 16 18 19 18 17 15 15 16 15 14 14 14 14 14 14 16 17 16 14 13 13 11 10 13 17 20 21 21 21
12 12 12 15 18 21 24 28 27 24 21 19 19 21 22 22 22 22 22 20 19 20 20 20 20 21 20 18 17 17 18 17 16 17 18 18 18 17 16 15 15 15 15 14 12 11 12 13 14 15 18 17 13 12 12 12 11 13 15 18 20 19 19
8 12 14 17 19 19 21 25 25 22 20 20 22 23 23 24 24 24 23 22 21 21 21 21 22 22 20 19 17 16 16 15 15 16 17 17 16 15 14 14 14 14 13 13 12 9 10 13 14 15 17 18 14 11 12 13 14 13 14 16 18 18 17
6 11 14 17 19 20 21 23 23 21 21 22 24 25 25 25 25 24 24 23 22 21 21 21 21 21 20 19 17 15 14 14 14 14 14 14 14 13 13 13 12 11 12 13 11 8 8 11 13 14 16 17 16 13 11 13 14 12 12 15 17 16 15
8 11 13 16 20 21 21 22 22 21 22 24 26 26 26 25 24 23 23 22 21 20 20 20 20 19 17 16 14 14 14 13 12 12 12 12 13 13 12 10 9 9 10 11 11 9 9 10 11 13 14 15 16 15 12 11 12 11 11 13 15 15 14
11 14 17 19 21 21 21 23 25 26 26 28 28 27 25 24 22 22 22 20 19 20 19 19 18 16 14 14 13 14 14 12 11 11 11 11 12 11 9 7 8 9 9 10 10 10 10 10 11 12 13 14 16 17 14 10 10 10 10 11 13 15 15
9 12 14 16 18 21 22 23 25 27 28 29 27 24 22 20 19 20 19 18 19 20 19 17 16 14 13 14 15 16 16 13 11 11 12 11 10 9 7 6 7 8 8 9 10 10 10 10 11 12 13 14 15 16 15 12 11 11 11 11 12 14 15
10 11 14 15 17 21 24 23 23 26 27 25 23 20 17 16 17 17 17 17 19 18 16 15 15 14 14 15 16 17 17 15 12 12 13 12 9 8 7 8 7 7 6 8 9 10 10 10 11 11 12 13 13 14 14 13 12 12 12 12 12 14 15
9 12 15 18 20 22 23 22 22 24 24 20 18 16 15 15 15 15 15 17 18 16 14 14 15 15 15 16 17 18 17 16 14 13 14 12 9 8 9 9 8 6 6 7 8 10 11 11 10 10 11 12 13 13 12 13 13 13 13 13 13 14 15
9 12 14 17 18 18 20 22 21 20 19 18 15 14 14 14 14 13 14 16 17 15 14 14 14 15 16 17 18 19 18 16 14 14 14 11 7 7 11 11 9 6 6 7 8 9 11 12 12 11 11 12 13 13 11 12 13 13 13 13 13 14 15
9 12 14 15 15 15 17 18 17 16 17 16 15 15 15 15 14 14 15 16 16 14 14 14 14 15 16 17 18 19 17 15 13 13 12 9 6 8 12 12 10 8 7 7 8 9 10 12 12 13 14 15 15 14 13 11 11 12 12 12 13 15 17
8 11 13 15 15 15 15 15 15 15 16 16 16 16 16 15 15 15 16 16 15 14 14 14 13 14 15 15 17 18 15 14 14 14 12 9 8 10 13 12 10 10 10 8 8 8 9 11 13 14 15 16 17 16 14 12 12 11 11 11 12 13 16
7 8 10 12 12 12 14 15 15 16 16 17 17 17 16 16 16 16 17 15 13 13 13 13 12 12 13 14 16 16 13 12 13 13 11 10 10 12 13 12 10 10 10 8 7 8 8 9 11 13 14 15 15 15 14 12 12 11 10 11 11 12 14
4 5 7 8 8 10 13 14 15 16 16 17 16 15 15 16 15 15 15 13 11 11 12 11 10 11 12 13 13 13 10 9 11 11 10 12 13 13 14 12 9 8 8 7 6 6 6 8 10 11 12 13 12 12 14 14 13 12 11 11 11 11 12
3 5 7 7 8 10 11 11 12 13 14 14 13 13 13 15 15 15 13 11 9 9 9 9 10 12 13 12 12 13 13 13 13 12 11 13 14 13 12 10 7 7 7 5 2 3 5 7 9 10 12 13 11 9 11 12 13 12 12 10 9 8 10
3 5 6 7 8 8 8 8 9 9 11 12 11 11 12 12 12 12 11 8 6 6 6 7 9 11 12 13 14 16 16 16 14 10 9 11 12 12 11 8 6 7 7 4 2 2 4 6 8 9 11 12 12 10 9 9 10 11 10 9 7 6 7
3 4 5 6 7 7 7 7 6 7 8 9 9 10 11 11 11 11 8 5 4 4 4 5 7 9 13 15 16 17 18 17 16 13 12 12 12 11 9 6 6 6 5 4 4 3 6 7 9 10 10 11 12 12 11 11 10 10 9 8 7 5 5

ECMWFFLT1_925_spd_006.txt.gz
Wind_Speed
16 16 14 12 13 13 14 16 17 17 17 16 16 16 15 14 13 12 11 11 9 8 6 5 4 3 2 2 1 2 2 2 2 2 2 2 2 3 4 5 6 6 6 7 7 7 8 8 8 8 8 8 8 8 7 8 9 10 10 11 11 12 14
15 15 14 13 13 14 15 17 18 17 18 17 16 17 16 14 14 13 11 11 9 8 6 5 4 3 2 2 2 3 2 2 2 2 2 2 2 3 4 5 6 7 7 7 7 7 8 8 9 9 8 8 8 8 8 8 8 9 9 10 11 11 13
14 14 15 14 13 14 15 17 17 17 18 18 18 17 16 16 15 14 12 11 10 8 7 6 5 4 3 3 3 3 3 3 2 2 3 3 3 4 5 6 6 7 7 7 7 8 9 10 10 9 9 9 9 8 8 9 9 10 10 11 11 11 12
14 15 15 14 14 14 15 17 18 18 18 19 19 18 17 17 16 14 12 11 10 8 7 7 6 4 3 3 4 4 3 3 3 3 3 3 4 5 5 6 7 7 7 8 8 9 9 10 10 10 10 10 10 9 9 10 11 11 12 12 12 12 13
14 15 15 14 14 14 14 16 18 18 19 20 19 18 17 17 16 14 12 11 9 8 7 7 5 4 3 4 4 4 4 4 3 3 4 4 5 6 6 7 8 8 8 8 9 10 10 11 11 11 11 12 12 11 11 12 12 12 12 12 13 13 13
14 15 15 14 14 14 14 17 20 20 20 20 20 18 17 17 16 14 13 11 10 8 7 7 6 4 4 5 5 5 4 4 4 4 5 5 6 6 6 7 8 8 8 8 9 10 10 11 12 12 13 13 14 14 14 14 14 13 12 12 12 12 13
13 14 15 15 14 14 15 18 21 21 20 20 19 19 18 17 16 14 13 11 10 9 8 8 7 5 5 5 5 6 5 5 5 5 6 6 6 7 7 7 8 8 8 9 9 10 11 12 12 13 14 14 15 15 15 15 14 14 12 12 12 13 14
13 13 15 15 15 15 15 18 21 21 21 20 19 19 19 17 15 14 13 11 10 9 8 7 7 7 6 6 6 7 6 6 6 6 7 7 7 8 8 8 8 9 9 9 10 10 11 12 13 13 14 15 15 14 14 14 14 12 11 11 12 13 14
13 13 14 16 16 15 15 19 21 20 20 20 19 19 19 17 15 14 13 11 10 9 8 7 7 7 7 7 7 7 7 7 7 7 7 8 8 8 8 8 8 9 9 10 11 11 12 13 13 14 14 14 14 13 13 13 13 13 11 11 12 14 15
12 13 13 14 15 13 15 19 20 19 19 19 18 18 18 16 15 13 12 12 10 9 8 8 7 8 7 7 8 8 8 8 7 8 8 8 8 8 8 9 9 9 10 11 12 12 13 13 14 14 14 13 13 13 13 13 13 13 12 11 12 13 14
11 12 12 14 15 14 16 17 17 18 18 18 17 18 17 16 15 14 13 12 11 9 8 8 8 8 8 8 8 8 9 9 8 8 9 8 8 8 9 9 9 10 11 11 12 13 13 14 14 14 13 13 13 13 13 13 13 12 11 11 11 12 13
10 11 12 15 15 15 16 15 16 18 18 18 18 18 17 16 15 14 13 12 11 9 8 8 9 8 8 8 9 9 9 9 9 9 9 9 8 8 9 10 10 11 11 12 13 13 14 14 14 14 14 13 13 13 13 13 12 12 11 10 10 11 12
9 10 11 13 14 14 14 14 15 18 19 19 18 18 17 16 15 14 14 13 12 10 8 9 9 9 9 9 9 9 9 9 9 9 9 9 8 9 10 10 11 12 13 13 14 14 14 15 15 15 14 14 13 14 13 12 12 11 10 9 9 11 12
10 11 11 12 14 15 15 15 14 16 19 19 19 18 17 16 15 14 14 13 12 11 9 9 10 10 10 9 9 10 10 10 9 9 9 9 9 10 11 11 12 13 13 14 15 15 15 15 16 15 15 14 13 13 12 11 11 10 9 8 9 10 11
11 12 12 14 15 16 16 15 14 16 18 19 19 18 16 15 15 14 14 14 12 11 10 9 10 11 10 10 10 10 10 10 9 9 9 9 9 10 12 12 13 13 14 14 15 15 15 15 15 15 15 14 12 11 11 10 10 9 9 8 8 9 11
12 13 14 15 15 15 16 16 16 17 19 19 19 18 17 15 14 15 15 14 13 11 10 10 11 12 11 11 11 11 10 10 10 10 10 10 11 11 12 13 13 13 13 14 15 15 15 14 14 14 13 13 12 10 10 9 9 10 11 9 9 10 12
12 13 14 15 15 15 15 16 16 17 19 20 20 19 17 15 15 16 16 15 13 11 11 12 12 12 12 11 11 11 11 11 11 11 11 11 12 13 13 13 13 12 13 14 14 14 13 13 13 13 12 12 11 10 9 9 10 12 12 9 9 11 12
11 12 13 14 14 15 16 17 17 17 19 20 19 18 17 16 16 16 16 15 13 11 12 13 13 13 12 12 11 11 11 12 12 12 13 13 13 14 14 13 13 13 14 15 14 13 13 13 13 13 11 10 10 9 9 9 11 14 13 10 10 12 13
10 11 12 13 14 15 16 17 17 19 20 20 19 19 18 18 18 17 17 15 13 12 13 13 13 13 12 12 12 12 12 12 12 13 14 13 14 15 14 13 13 14 14 14 13 13 13 13 13 12 11 10 9 9 10 10 11 14 14 12 12 13 13
9 9 11 12 14 15 14 15 17 19 21 20 20 20 19 19 19 17 16 15 14 14 14 14 13 12 12 12 12 12 12 12 13 13 14 13 14 14 13 12 13 14 13 13 12 13 13 13 13 12 11 11 10 10 10 10 11 13 14 13 12 13 13
8 9 10 11 12 13 13 14 17 19 20 20 21 20 19 19 18 17 16 15 15 15 15 14 13 13 12 12 12 11 12 12 12 13 13 13 13 12 12 12 12 12 12 11 12 12 13 13 13 13 12 12 11 12 12 11 12 13 14 14 13 14 14
7 8 9 9 11 12 14 16 18 19 20 19 20 20 20 20 20 18 17 16 16 16 15 14 14 13 13 13 12 11 11 11 12 12 12 12 12 12 11 11 11 11 11 11 12 12 12 13 13 13 13 12 12 13 13 12 12 13 13 14 14 15 15
5 7 8 9 11 13 16 18 18 19 20 19 20 21 21 21 20 19 18 18 18 17 16 15 15 14 13 13 12 11 10 10 11 12 12 12 12 11 10 11 11 11 10 10 11 12 12 13 13 13 13 13 13 14 14 13 13 13 14 14 14 16 16
4 6 8 10 13 15 17 17 18 20 21 21 21 22 21 21 21 20 19 19 19 17 17 17 16 15 14 13 11 10 10 10 11 11 11 11 11 11 11 11 11 11 10 11 12 13 13 14 15 17 17 16 16 16 16 16 15 13 13 13 14 15 17
5 7 9 11 13 15 17 18 18 20 20 19 20 22 22 21 22 21 20 20 20 18 18 18 16 15 14 12 10 10 9 10 10 10 10 10 11 11 10 9 9 10 10 11 12 12 13 14 15 18 19 20 20 18 17 18 16 13 12 12 12 14 16
6 7 9 11 12 14 16 17 17 17 17 18 21 24 23 22 22 22 21 20 20 19 19 18 16 14 13 11 10 9 9 9 10 10 10 11 11 10 8 6 7 7 6 7 9 9 10 12 12 14 18 21 23 22 21 19 15 12 12 12 11 12 15
7 7 8 10 11 13 14 15 16 16 17 20 22 21 20 20 20 21 20 18 19 20 19 16 15 14 13 10 9 9 8 9 9 9 10 11 10 9 7 6 7 6 4 6 7 7 8 9 10 13 17 19 20 22 23 21 15 11 12 12 10 11 12
7 7 8 9 10 11 11 12 13 15 17 17 16 14 14 15 16 16 16 16 19 20 18 15 14 13 11 9 9 8 7 8 9 9 9 9 9 8 7 6 7 7 6 7 6 6 8 8 9 12 14 15 16 18 22 22 16 11 12 12 10 9 9
7 7 7 8 8 9 9 9 10 13 15 14 12 10 11 12 13 13 14 16 19 18 16 15 13 10 8 8 8 7 6 7 8 8 8 8 9 9 8 8 9 9 8 8 7 7 8 9 10 11 12 13 15 18 24 23 14 8 10 11 10 9 8
7 7 6 6 7 9 9 9 9 10 11 10 8 8 9 11 12 13 14 16 16 15 14 13 11 8 7 7 7 6 5 5 6 7 8 8 9 10 10 10 9 9 8 8 8 9 9 9 10 11 12 13 13 18 24 24 16 10 9 10 11 10 9
7 7 6 5 6 7 8 8 8 7 6 5 5 6 7 8 10 12 14 15 14 13 12 11 9 8 7 7 6 4 3 4 5 6 6 7 8 9 10 9 9 9 8 8 8 9 10 11 11 11 12 12 12 16 20 19 15 11 8 9 13 13 10
7 6 6 6 6 5 5 5 5 5 5 4 5 6 7 8 10 12 14 13 12 12 12 10 9 8 7 6 4 3 2 3 5 5 5 6 8 9 9 9 9 9 8 9 10 10 10 10 11 12 11 10 10 14 15 15 13 9 8 11 15 13 11
7 6 5 5 5 4 3 3 3 5 6 5 5 5 6 8 10 12 12 11 11 11 11 10 9 8 6 5 4 3 2 2 3 4 6 7 7 8 9 9 9 10 10 10 10 10 9 10 11 11 11 10 10 12 12 13 12 11 13 17 18 15 13
6 6 5 5 5 4 3 2 2 2 2 1 0 2 3 5 7 8 8 9 10 10 10 9 8 7 6 5 4 4 3 3 3 5 6 6 7 8 9 8 9 10 9 8 8 8 9 10 10 9 9 10 11 12 12 11 11 13 17 20 20 18 15
7 7 7 7 6 5 4 4 3 3 4 3 3 2 1 1 3 4 6 6 7 8 8 8 7 5 5 5 5 5 5 5 6 7 7 7 8 8 7 7 9 10 7 6 7 9 9 9 8 7 7 8 9 10 9 9 11 14 18 20 17 14 12
8 8 8 8 7 7 7 7 6 6 5 4 3 2 1 2 2 4 5 5 5 6 6 7 6 5 6 7 7 7 7 8 9 8 7 9 10 8 5 6 9 10 7 6 7 8 7 6 4 3 4 4 5 5 7 8 11 15 17 16 12 8 7
8 8 8 7 7 8 8 8 7 6 5 4 3 2 2 2 3 3 4 4 4 5 6 6 5 6 7 8 7 6 6 9 10 8 8 9 9 8 6 3 1 2 3 4 4 3 2 1 1 3 4 4 4 4 7 10 12 13 13 10 7 6 7
8 8 7 7 7 8 8 7 6 5 4 3 3 2 1 2 2 3 3 3 4 4 5 6 6 7 8 8 6 3 4 7 8 7 8 7 6 8 8 2 6 5 4 4 4 3 4 4 6 6 7 7 7 6 9 12 14 13 11 7 4 4 7

ECMWFFLT1_925_spd_009.txt.gz
Wind_Speed
17 17 17 15 15 15 14 18 21 22 22 21 21 21 20 18 17 15 15 15 13 13 12 10 9 7 6 6 5 5 5 4 4 4 4 4 4 4 5 6 7 8 9 9 9 9 9 9 9 9 9 9 10 10 10 10 10 11 11 11 11 12 12
17 16 17 16 16 16 17 21 23 23 23 22 22 22 20 18 18 16 15 15 14 14 12 11 9 8 6 6 6 5 6 5 5 5 5 5 5 5 5 6 8 8 9 9 9 10 10 10 10 10 10 10 10 11 11 10 10 11 12 12 12 13 12
16 16 17 16 16 17 18 21 23 24 24 24 23 23 22 20 19 17 16 16 15 14 13 11 9 8 7 6 6 6 6 6 6 6 6 5 5 5 6 6 8 8 9 9 9 9 10 10 10 11 11 11 11 11 11 11 11 11 12 12 12 12 12
15 16 17 17 17 17 17 21 25 26 25 25 25 24 23 21 19 18 17 16 16 15 13 12 10 9 8 7 6 7 7 6 6 6 6 6 5 5 6 7 7 8 8 9 9 10 10 11 11 11 11 11 12 12 12 12 12 12 12 12 12 12 12
14 16 16 16 17 16 16 20 24 26 25 26 26 25 24 22 20 19 17 16 16 15 14 12 10 9 8 7 7 7 7 7 6 6 6 6 6 6 7 7 8 8 8 8 8 9 10 11 11 11 11 12 12 12 12 12 12 12 12 13 12 12 12
13 15 15 15 16 17 17 20 24 27 26 27 27 25 24 23 21 20 18 17 16 15 14 13 11 10 9 8 8 7 7 7 7 7 7 7 7 7 8 8 8 9 9 9 8 9 10 11 11 11 12 12 13 13 13 13 12 12 12 12 12 12 12
11 13 15 15 16 16 17 20 25 27 26 27 27 25 24 23 21 20 19 18 17 16 15 13 11 11 10 8 8 8 8 7 7 8 7 8 8 8 8 8 9 9 10 9 9 10 10 11 11 12 12 12 13 13 13 13 12 12 12 11 12 12 12
11 12 14 15 15 14 14 18 24 26 25 26 26 26 25 23 21 20 19 18 17 16 14 13 12 12 10 9 8 8 8 8 8 8 8 8 8 9 9 9 9 10 10 10 10 10 10 11 12 12 13 13 13 13 13 13 13 12 11 11 12 12 12
10 12 14 15 15 13 13 18 24 25 25 25 26 25 25 23 22 21 20 18 16 15 14 12 12 12 11 9 8 8 8 8 8 8 8 9 9 10 9 9 9 10 9 10 10 11 11 11 12 13 14 14 14 13 12 12 12 12 11 11 11 11 11
8 11 13 15 15 14 15 20 21 21 23 24 24 25 25 24 22 21 20 18 16 15 14 11 10 11 11 10 9 8 8 8 8 8 9 9 9 10 10 10 10 9 8 9 11 11 11 12 12 13 14 14 14 13 12 12 12 12 12 11 11 12 12
7 10 12 14 16 17 18 19 17 18 22 23 24 25 25 23 22 21 20 18 16 15 14 12 10 9 10 10 9 8 9 9 9 8 9 9 9 10 10 10 10 9 9 11 11 11 12 12 12 12 13 14 14 13 12 11 12 13 13 13 12 13 14
7 9 11 14 16 17 17 17 15 18 23 24 25 25 24 24 23 21 19 18 15 13 12 12 11 10 10 9 8 8 9 9 9 9 9 9 9 10 10 10 10 11 11 11 11 12 13 13 13 13 13 14 15 14 13 12 12 12 13 13 12 12 13
8 9 11 12 14 15 15 16 16 19 23 25 25 26 25 24 23 21 20 18 14 11 11 11 10 10 9 8 7 7 8 9 9 9 9 9 9 10 10 10 11 11 12 12 13 14 15 14 14 14 14 15 15 15 14 12 12 12 11 12 12 12 12
10 11 12 13 14 15 16 16 16 18 22 25 26 26 25 23 22 21 19 16 13 12 11 11 10 11 10 8 7 8 8 9 8 8 9 9 9 10 10 10 10 11 12 13 14 14 14 15 15 15 15 16 15 14 13 13 12 11 11 11 11 12 13
11 12 13 15 15 16 17 17 16 17 21 24 25 25 25 23 21 18 15 12 12 13 12 11 11 11 10 9 8 8 9 8 8 8 9 10 10 10 10 10 11 11 12 13 14 14 14 15 16 16 16 15 14 13 14 15 13 11 11 12 12 12 13
11 12 14 15 16 16 17 17 17 18 21 24 25 26 25 22 20 19 16 14 16 15 13 12 12 12 10 9 9 9 9 9 9 9 9 10 10 10 11 11 11 12 12 13 14 14 15 15 15 16 16 15 14 13 15 15 12 12 13 15 15 15 14
10 11 13 14 16 16 17 17 18 18 21 24 26 26 25 23 22 21 17 18 18 16 14 13 13 12 11 10 10 10 9 9 9 10 10 10 11 11 12 12 12 12 13 13 14 15 15 15 15 15 15 15 14 14 13 13 12 13 14 15 18 19 17
9 10 11 13 14 15 17 18 19 19 22 25 27 27 25 23 22 18 16 20 18 16 15 14 13 12 11 11 11 10 10 10 10 10 11 11 12 12 13 13 13 13 13 13 13 14 14 14 14 15 15 14 14 13 13 13 13 12 12 13 17 19 19
10 10 10 11 12 14 16 16 17 20 23 26 28 27 25 24 23 16 22 21 17 15 15 14 13 12 12 12 11 11 11 11 11 11 11 11 12 12 13 13 13 13 12 12 12 12 13 14 14 14 15 14 12 13 14 13 13 11 11 13 16 19 20
9 8 8 9 11 13 14 14 16 21 24 26 28 27 27 28 24 24 26 20 17 16 15 14 13 12 12 13 12 12 12 12 12 12 11 11 12 13 13 13 12 12 12 12 11 12 12 13 14 14 14 12 11 13 14 14 13 14 15 16 16 18 20
7 7 8 9 10 11 12 13 16 20 23 25 26 26 27 28 27 26 23 19 18 17 16 15 14 13 14 13 13 14 13 13 13 12 11 12 12 12 13 13 12 11 11 11 11 11 11 12 12 12 11 11 11 12 13 13 14 16 17 18 17 17 18
6 7 7 8 10 11 12 14 16 19 21 23 25 25 25 26 26 24 21 20 19 18 17 16 15 15 15 15 15 16 15 14 13 12 12 12 12 12 12 12 12 11 11 11 10 10 10 10 10 10 10 10 10 10 11 13 15 17 18 19 18 17 17
4 6 7 8 9 11 13 14 16 19 21 23 24 24 23 24 23 21 20 19 19 18 18 17 17 17 17 17 17 17 16 15 13 12 12 11 12 12 12 12 12 11 11 11 10 10 10 10 9 9 10 10 9 9 11 13 15 17 19 19 18 18 19
4 6 7 9 10 12 13 14 16 19 22 23 23 22 22 22 21 20 19 19 20 19 19 19 19 19 19 19 18 17 16 14 13 12 12 11 12 12 11 12 12 12 11 11 11 11 11 11 10 10 10 10 9 10 12 13 14 16 20 20 17 19 20
6 8 9 10 12 13 14 15 16 19 21 22 22 21 20 20 20 19 19 20 20 20 20 20 20 19 19 18 17 16 14 13 12 12 12 12 12 11 11 12 12 12 12 12 12 12 12 11 11 11 11 10 10 11 11 11 12 15 19 19 16 17 20
7 9 10 11 13 14 15 16 18 20 21 21 20 20 19 19 19 19 19 20 19 19 20 20 19 18 17 16 15 15 14 13 12 12 12 12 11 11 12 13 12 13 13 13 13 13 12 11 12 12 12 11 11 11 9 8 11 16 19 18 15 14 17
9 10 11 13 14 15 16 16 18 20 20 19 18 18 18 18 17 17 18 18 18 19 19 18 17 16 15 15 15 15 13 12 12 13 13 12 11 11 12 12 12 13 13 13 14 13 12 12 11 12 13 11 11 11 7 7 12 15 16 15 13 12 15
10 10 12 14 15 15 15 16 16 18 19 17 16 16 16 15 15 16 17 17 18 19 18 17 16 15 15 15 15 14 12 12 13 13 12 12 12 12 12 12 13 14 14 14 13 13 12 12 12 12 12 12 12 10 6 7 12 14 11 12 12 11 13
10 11 13 15 15 15 15 15 16 18 18 15 15 15 13 13 14 15 16 18 19 19 17 16 16 15 16 16 15 14 13 13 13 12 11 13 12 11 12 13 13 14 14 14 14 13 13 12 12 13 12 11 11 9 6 6 9 11 11 11 9 10 13
10 11 13 14 15 14 14 14 14 15 15 13 12 12 12 13 13 14 16 17 18 16 15 15 16 16 16 16 15 14 13 13 13 13 13 13 12 11 12 13 13 14 14 14 14 13 13 12 11 11 11 11 10 9 7 6 7 9 11 9 8 11 15
10 11 12 12 13 13 13 12 12 12 11 10 8 7 8 10 11 13 15 15 14 13 13 13 13 14 14 14 13 13 13 12 12 13 12 11 11 11 11 12 13 13 12 13 14 13 13 11 10 10 11 10 9 8 5 3 4 7 9 8 10 14 16
10 11 11 10 11 11 10 10 10 9 8 7 5 4 5 7 8 9 10 10 9 9 9 10 11 12 12 12 12 13 13 12 12 12 12 11 9 10 11 11 11 12 12 13 13 13 12 10 10 12 11 8 11 12 6 2 2 4 6 8 11 14 15
10 10 10 10 10 9 8 8 8 8 7 7 7 6 6 6 6 6 6 6 7 7 7 9 11 11 12 12 11 12 13 12 11 11 11 11 9 10 11 9 10 12 12 10 11 14 15 13 12 12 10 8 11 11 5 2 2 4 6 10 13 14 16
10 11 11 11 10 9 8 7 6 6 6 6 5 2 2 2 3 5 4 5 6 7 7 9 10 11 11 11 10 10 11 10 9 8 9 10 9 8 8 7 10 11 8 6 8 10 12 14 13 12 13 12 10 7 5 5 5 6 10 14 14 15 16
11 12 12 11 10 10 9 8 7 7 7 6 4 2 1 1 3 5 5 5 6 6 7 9 9 10 10 9 10 10 10 9 9 8 7 8 7 4 3 6 11 11 6 5 7 8 8 11 11 11 13 12 8 7 7 7 7 9 11 13 12 12 13
11 11 12 12 11 11 11 10 10 9 8 6 5 3 2 1 1 4 6 6 3 3 6 8 9 9 10 10 11 11 10 9 9 8 7 9 8 4 2 5 8 9 5 4 8 8 7 8 7 7 9 8 6 7 6 6 8 11 11 11 9 8 9
10 11 11 12 12 12 12 12 11 10 9 7 6 5 3 2 1 2 4 3 2 3 6 8 9 9 11 12 10 8 8 10 10 8 8 10 10 9 5 5 4 3 3 2 4 5 5 4 4 4 5 3 4 6 7 7 9 11 11 11 9 6 6
11 12 12 12 12 13 13 12 11 10 9 7 6 5 3 1 1 2 3 2 3 5 7 8 10 11 12 13 9 4 5 8 9 9 9 9 9 9 7 4 5 2 2 2 2 2 2 4 4 5 5 5 5 5 7 9 11 11 11 12 10 5 4

ECMWFFLT1_925_spd_015.txt.gz
Wind_Speed
13 14 15 13 13 14 14 16 22 25 26 27 29 30 31 31 32 32 32 33 33 31 31 29 27 25 20 17 16 15 13 12 10 8 7 6 6 6 6 5 4 5 4 4 4 4 5 6 5 4 4 5 6 5 5 6 6 7 6 6 7 7 7
13 12 13 13 12 13 15 19 24 26 26 29 31 31 31 32 33 33 32 33 33 33 32 31 29 26 21 19 18 16 15 13 11 9 8 7 7 8 7 5 5 5 4 5 5 4 3 3 3 4 5 6 7 6 6 6 7 7 7 7 7 7 8
12 11 13 14 12 13 15 18 23 26 28 30 31 32 32 33 35 35 34 33 33 33 32 31 29 27 23 21 20 17 16 13 11 11 10 9 8 7 7 6 6 5 5 6 5 3 3 3 4 5 6 7 7 7 7 8 8 8 7 7 8 9 9
12 12 14 15 13 14 15 18 22 26 29 31 33 34 34 35 36 36 35 34 34 33 33 32 30 28 25 23 21 19 17 14 13 12 11 9 8 8 8 7 7 6 6 6 5 5 5 5 6 6 6 7 8 8 8 8 9 9 8 8 9 10 10
12 11 12 14 12 12 13 16 22 26 29 31 33 34 35 35 34 34 34 34 34 34 34 33 31 29 26 24 22 20 18 16 14 13 12 10 9 9 9 8 7 7 7 8 8 7 6 6 7 8 7 7 8 8 9 9 9 9 9 9 10 10 10
11 10 11 12 12 12 13 16 23 28 30 32 33 34 34 34 33 33 33 33 32 32 32 31 30 28 26 24 23 20 18 16 16 15 14 12 11 11 11 10 9 9 10 10 10 9 8 8 9 9 8 8 9 9 9 10 10 10 10 10 11 11 10
11 9 10 11 11 11 12 15 22 28 30 31 32 32 32 33 33 33 33 32 32 31 31 31 29 28 26 25 23 21 19 17 17 16 14 13 13 12 11 11 11 11 12 12 11 10 10 10 10 9 9 9 10 11 10 10 11 11 11 12 11 10 10
11 9 9 11 12 13 12 14 20 25 27 28 29 30 31 31 32 32 32 32 31 31 31 31 30 28 27 25 23 21 20 19 18 17 15 14 14 13 12 12 12 12 13 13 13 13 13 12 11 10 10 11 13 13 12 11 10 10 11 12 12 10 10
11 10 10 11 12 13 12 14 20 24 25 27 28 30 31 31 32 32 32 33 32 31 32 31 30 30 28 26 24 22 21 20 19 18 16 15 15 14 13 12 13 14 14 14 14 14 14 14 12 11 12 14 15 15 14 12 11 10 10 11 12 11 10
10 10 10 10 11 11 11 14 18 19 21 24 27 29 30 31 31 31 31 32 32 32 32 30 30 30 29 27 25 23 21 20 20 18 17 16 15 14 13 13 14 14 13 12 12 13 14 13 11 11 13 15 16 17 16 14 13 11 10 12 13 14 14
8 9 10 10 10 10 11 12 13 15 19 23 25 28 30 31 32 31 32 33 33 33 33 31 31 31 30 28 26 24 22 21 20 19 18 17 16 15 14 13 13 11 9 7 5 7 7 6 7 9 10 12 12 12 13 13 13 12 12 13 15 15 15
8 8 10 11 10 11 11 11 12 15 20 23 25 27 29 30 31 31 31 33 33 33 32 31 31 32 31 28 26 24 23 21 21 19 18 18 17 15 14 14 13 11 9 6 4 5 6 7 9 9 9 10 9 8 10 11 11 12 13 15 16 16 15
8 8 9 9 9 10 11 11 13 15 19 23 25 27 28 30 32 31 32 34 34 33 33 32 33 33 30 28 26 24 23 22 22 20 20 19 17 15 14 13 12 11 10 10 9 10 10 9 9 9 10 11 11 11 12 13 14 14 15 16 16 15 16
9 8 8 8 8 10 12 12 13 13 16 21 24 26 27 29 30 31 33 35 34 34 35 34 34 33 30 28 26 25 25 24 23 22 21 19 17 14 14 13 13 13 13 14 14 14 13 10 9 10 12 13 14 15 15 15 16 15 15 16 14 13 14
9 8 9 9 9 10 12 12 12 12 14 19 22 24 26 28 29 30 32 34 35 36 38 36 35 34 31 29 28 26 26 26 24 23 21 19 17 15 15 15 15 15 16 17 17 15 14 13 12 13 14 15 16 14 13 14 15 14 14 15 13 11 11
9 9 9 9 9 10 11 12 13 13 13 17 21 24 27 28 29 29 31 32 34 35 37 36 35 34 32 29 28 27 27 27 26 24 21 20 19 18 18 17 17 16 16 16 16 15 15 15 15 15 16 16 16 13 12 14 15 14 14 13 11 11 11
7 7 8 9 10 10 10 11 12 12 12 16 22 26 28 28 29 32 33 33 34 35 36 36 36 34 31 28 25 25 27 27 26 24 22 21 20 19 20 19 17 16 16 16 16 17 17 18 17 16 16 17 16 15 15 17 17 15 15 14 13 13 13
3 3 5 9 10 9 9 10 10 11 14 18 22 26 28 29 26 21 16 14 16 21 26 31 33 31 29 28 25 24 26 27 26 24 23 22 22 21 21 19 18 17 17 18 18 19 19 19 19 18 17 17 17 16 16 17 17 17 16 15 14 14 13
3 1 2 5 9 10 10 9 10 13 17 21 26 28 27 24 20 21 22 20 19 23 27 29 31 31 30 29 27 25 25 26 26 26 26 25 25 24 22 21 20 20 20 20 20 20 21 21 20 18 17 17 16 16 16 17 18 18 17 15 14 12 11
4 4 2 2 6 9 10 9 11 14 19 25 29 26 22 25 29 30 30 30 33 38 38 32 29 30 30 29 26 25 27 30 29 28 28 28 27 25 23 22 21 21 21 20 20 21 21 20 19 19 19 18 16 16 16 17 18 16 15 13 12 10 11
5 6 5 4 5 7 9 10 10 12 18 23 24 23 27 31 34 35 36 39 41 39 34 27 22 24 27 26 24 27 31 32 31 30 30 29 28 26 24 23 22 22 21 21 21 21 21 20 19 18 18 17 15 14 16 19 18 16 13 11 10 11 13
7 7 7 7 7 6 8 12 15 16 19 22 24 28 31 33 35 37 36 36 32 26 25 23 20 24 26 24 25 31 34 33 32 31 29 27 26 25 23 23 23 22 21 21 22 22 21 20 19 18 18 16 15 15 17 17 16 13 11 10 11 12 12
5 6 6 7 7 5 6 12 19 21 23 25 26 29 30 31 32 33 30 25 19 17 19 18 19 24 28 27 29 33 33 32 31 29 27 25 24 24 24 23 23 22 22 23 23 23 22 22 20 17 14 12 11 12 13 13 13 12 11 11 13 12 11
2 3 6 6 5 4 3 7 17 24 27 26 25 27 30 30 32 32 28 26 26 25 26 25 24 25 28 30 31 33 32 30 30 29 26 24 23 23 24 23 23 24 23 22 22 22 21 18 12 9 9 9 10 12 13 13 14 15 14 12 11 10 11
6 6 8 9 7 5 6 9 17 25 27 25 25 28 32 33 34 32 28 29 31 29 30 30 28 26 29 32 33 32 30 29 29 28 26 25 26 26 25 24 24 23 21 21 20 18 14 11 8 8 10 12 14 15 15 14 15 15 15 11 7 9 12
7 7 8 8 7 6 5 8 16 22 24 25 28 31 34 35 35 32 30 29 28 27 30 33 31 27 29 33 31 28 27 28 28 27 25 23 20 19 21 23 22 19 18 16 12 8 8 9 11 11 11 13 14 15 15 14 15 14 11 8 6 9 11
8 10 9 8 8 9 8 8 15 23 25 28 32 34 36 36 34 30 29 28 27 29 33 35 31 26 28 28 25 24 25 25 25 24 21 17 14 16 20 22 18 12 8 6 6 7 9 11 12 10 9 10 12 14 14 13 12 9 7 6 5 7 8
7 8 8 7 8 11 10 7 12 21 26 31 35 36 36 36 31 27 26 26 27 32 34 31 27 24 25 25 23 23 23 22 22 22 22 21 21 20 17 11 8 6 2 2 7 12 11 11 11 11 10 11 12 14 14 12 10 7 7 7 6 6 6
7 7 8 9 9 9 10 14 15 11 16 28 35 35 36 34 27 24 23 23 27 30 28 26 26 27 26 26 25 23 20 19 20 21 21 20 18 15 9 4 4 4 4 6 10 12 12 12 12 12 11 12 14 14 12 9 8 8 6 5 5 5 6
6 6 8 10 10 10 14 21 20 8 8 19 32 33 31 30 25 22 22 22 24 25 22 21 25 26 24 23 21 18 17 16 17 16 14 12 12 12 10 8 8 8 9 11 12 13 13 13 13 11 10 11 13 12 9 6 6 5 3 2 4 5 6
5 7 7 8 10 13 15 19 23 12 11 18 28 31 28 28 25 21 19 18 18 19 17 16 17 17 16 15 14 14 14 14 14 14 13 12 11 11 10 9 10 11 10 11 11 11 12 12 11 10 10 10 11 10 7 5 4 2 2 4 6 6 8
7 9 11 11 11 14 15 16 21 15 11 20 25 30 25 25 25 21 20 19 17 16 15 12 13 13 11 11 11 11 12 12 12 13 14 13 10 9 10 11 12 12 10 9 9 8 8 8 8 9 10 10 10 8 5 4 4 4 5 6 7 7 10
6 7 11 11 10 15 18 16 19 15 8 18 17 26 22 22 23 21 20 18 14 13 13 10 10 11 9 9 9 9 9 9 10 11 12 11 9 8 9 10 10 9 9 9 9 7 5 5 5 8 10 11 9 6 5 5 6 6 6 7 7 9 11
5 7 11 13 12 16 19 16 17 17 5 17 10 25 24 21 22 20 18 17 15 14 14 13 12 11 9 9 9 8 8 8 9 9 9 9 8 8 7 6 6 8 10 9 8 6 4 2 1 2 5 8 8 6 5 6 7 6 6 7 9 10 9
7 8 11 14 14 15 17 14 14 18 7 16 10 24 25 19 20 19 16 17 15 13 12 13 12 11 9 8 7 7 9 9 10 11 12 11 11 10 9 9 9 10 10 8 6 5 5 5 5 4 4 7 8 7 7 7 6 5 6 7 8 9 7
8 10 10 14 16 16 18 14 10 12 5 10 5 14 20 18 20 18 14 14 14 12 12 14 13 10 7 6 6 10 13 14 14 15 15 15 15 13 12 11 10 9 9 7 6 5 5 5 5 5 6 7 7 6 5 5 4 4 5 5 5 6 3
8 10 10 12 14 15 17 17 14 14 12 3 6 8 14 16 18 17 15 15 15 14 14 15 13 10 7 6 8 12 14 13 14 16 17 15 14 12 13 13 11 9 8 7 6 5 4 4 4 4 5 6 5 3 2 1 1 2 2 3 4 3 1
6 10 12 14 16 16 18 20 20 20 19 14 11 11 13 13 13 14 16 15 13 13 13 12 12 10 8 7 10 12 11 10 13 15 14 13 13 13 14 15 15 13 10 8 8 7 7 7 6 6 5 3 2 1 2 3 3 3 3 4 4 1 2

ECMWFFLT1_925_spd_021.txt.gz
Wind_Speed
14 13 13 12 13 14 13 15 19 22 25 27 29 31 33 33 34 33 34 35 36 36 36 36 35 35 35 34 33 30 28 27 26 25 23 21 19 19 18 17 17 17 16 14 12 11 11 11 10 8 7 8 8 7 7 7 7 7 6 5 5 6 6
13 13 13 13 13 14 14 16 20 22 24 27 29 31 33 34 35 35 35 36 37 37 37 36 36 36 36 35 33 31 29 27 26 25 22 21 20 19 18 17 16 16 15 13 12 12 12 12 11 9 9 8 8 8 8 7 7 7 7 6 6 7 8
13 13 13 14 14 15 14 15 19 23 26 27 28 30 33 36 38 39 38 38 38 37 36 36 37 36 36 35 33 32 30 29 27 25 23 22 20 19 17 16 16 16 14 13 12 12 12 12 11 10 9 9 9 10 9 8 8 8 8 8 9 9 10
14 15 15 15 15 14 13 14 19 24 27 29 32 35 37 39 40 41 40 39 39 38 38 38 38 37 36 36 35 34 32 30 28 25 23 22 21 19 17 17 16 15 14 13 12 13 13 12 12 10 10 10 10 10 10 10 10 10 10 10 10 10 11
14 14 13 13 13 12 11 13 19 24 27 30 33 35 37 38 37 37 38 39 39 40 40 39 37 36 36 37 36 35 32 31 28 25 23 23 21 19 18 18 17 16 15 14 14 14 14 14 13 12 10 10 9 9 9 10 11 12 11 11 11 11 12
13 13 12 12 12 12 12 14 20 27 29 32 34 36 36 35 34 35 36 36 37 38 36 35 35 35 36 37 36 34 32 30 28 26 24 23 21 20 19 19 18 17 16 15 15 15 15 15 14 13 11 10 9 9 9 10 10 11 11 12 12 13 13
13 13 13 13 13 13 13 14 20 27 30 32 33 33 32 32 32 33 33 34 36 35 34 34 35 36 35 35 33 32 32 31 28 27 26 24 22 21 19 19 19 18 16 16 16 16 17 16 15 14 12 11 11 11 11 12 12 11 11 12 12 13 13
15 13 13 14 13 14 13 13 18 24 27 28 27 28 29 30 31 31 32 35 35 34 34 35 36 35 32 31 29 27 29 30 29 28 27 25 24 21 20 20 20 18 17 17 17 17 18 17 15 14 14 13 13 13 14 15 15 14 14 14 13 13 14
14 14 15 15 14 13 12 13 18 22 24 26 27 29 31 31 32 33 35 36 34 34 35 35 34 31 30 31 30 29 30 31 30 29 28 26 25 22 20 20 20 19 19 18 17 18 18 17 16 16 16 16 16 16 17 17 17 17 17 17 17 16 16
13 14 15 14 12 11 10 11 13 16 19 23 26 28 30 31 32 33 34 34 33 35 35 33 30 29 32 35 35 34 34 33 31 30 29 27 25 23 21 20 20 20 19 19 19 19 19 17 17 18 18 18 18 19 19 19 19 18 18 18 19 19 18
13 14 13 12 11 10 9 9 10 12 17 22 26 28 30 31 32 33 34 35 35 34 32 30 29 33 37 38 35 35 35 34 32 31 30 28 26 24 22 21 21 21 20 20 20 20 18 17 18 19 20 20 20 20 19 18 17 16 15 14 15 16 17
12 13 12 12 12 10 10 11 12 13 17 23 26 28 29 30 32 33 33 35 35 31 29 29 32 36 38 37 36 36 36 34 33 31 30 30 28 25 23 22 21 21 21 22 21 20 18 17 18 20 20 20 19 18 17 15 13 12 11 11 12 13 15
12 11 11 12 12 11 11 12 13 14 17 22 26 27 29 30 32 33 33 33 31 28 28 31 34 37 40 42 40 35 32 32 33 33 32 31 29 26 24 22 22 21 22 22 21 19 18 18 19 19 19 18 16 16 15 14 12 11 11 12 12 13 14
10 9 10 11 11 11 12 12 13 13 15 20 24 25 26 28 30 32 30 28 26 26 29 33 35 38 43 41 33 27 29 33 33 33 33 31 28 26 24 24 22 21 21 22 21 20 20 19 19 19 17 16 15 15 15 13 12 12 12 13 14 14 15
10 11 12 12 11 10 10 11 12 12 14 18 22 23 24 26 28 27 24 23 26 29 33 36 39 41 41 36 30 29 35 39 36 33 32 30 28 26 25 25 22 21 23 25 24 23 21 20 20 18 16 15 14 15 15 14 14 14 14 14 15 15 15
12 13 12 11 10 10 11 12 12 12 12 15 19 22 24 25 25 24 24 26 30 32 36 40 41 41 40 38 38 39 39 36 32 30 30 29 27 26 27 26 23 23 27 29 27 24 23 22 21 19 16 14 13 13 13 13 14 14 14 15 16 16 16
13 12 10 10 10 10 10 10 10 9 10 13 18 22 23 23 23 24 26 29 33 36 39 40 40 40 41 40 39 35 29 25 23 24 27 28 27 26 26 25 26 29 31 30 27 25 24 23 22 20 17 14 13 13 13 13 13 13 15 16 16 17 17
11 10 9 9 9 9 9 9 8 8 8 11 16 19 21 21 21 25 28 32 35 37 39 40 39 37 32 27 23 19 20 22 24 24 25 26 25 23 22 25 31 34 32 30 27 25 24 24 23 21 18 16 16 16 16 16 15 15 15 16 16 17 17
9 9 8 8 8 8 8 7 6 7 9 12 16 19 20 22 24 28 32 34 35 35 36 35 29 22 18 17 18 19 24 31 31 26 25 25 22 21 22 28 36 36 33 30 27 24 24 24 24 22 19 18 18 18 18 18 17 17 17 17 16 16 16
8 7 6 6 7 7 6 6 6 9 13 16 18 19 20 23 27 29 30 31 30 30 30 26 22 21 23 26 28 29 33 36 34 30 30 27 24 24 26 31 36 36 32 29 25 23 23 24 24 23 21 20 19 19 19 19 18 18 17 17 17 15 15
6 6 6 6 6 6 7 6 7 10 14 16 17 18 20 24 27 27 27 28 27 27 27 27 28 31 34 37 39 39 38 36 34 34 33 29 28 29 30 33 36 34 30 27 25 23 24 24 24 23 21 20 20 19 20 20 19 17 17 16 16 14 14
7 8 8 7 7 8 8 8 8 10 11 12 14 18 22 26 28 27 27 27 26 28 31 32 33 35 36 39 40 40 40 37 32 31 32 31 31 32 32 33 34 32 29 26 24 23 23 24 23 22 21 20 20 21 21 20 19 18 17 16 14 14 15
9 9 8 8 8 8 9 10 10 10 10 11 15 20 23 26 28 28 27 27 28 30 33 33 33 34 35 37 37 39 40 37 31 32 34 33 32 32 33 31 31 31 28 24 23 23 23 23 23 21 21 21 22 22 21 20 19 17 16 15 14 15 16
6 6 5 5 6 6 8 10 10 9 9 11 15 18 21 25 28 27 26 26 28 29 30 30 31 33 34 36 37 39 39 38 37 39 38 35 34 34 32 29 29 28 25 22 23 24 25 25 23 22 22 22 20 19 18 18 17 16 15 14 14 15 16
4 3 3 3 5 8 9 9 8 7 8 11 13 15 19 23 25 25 23 24 25 26 27 30 33 32 32 34 36 37 37 37 40 41 39 37 36 33 29 27 26 26 24 22 24 25 25 24 22 21 20 18 16 15 16 17 16 14 14 14 14 15 16
5 5 5 5 6 9 10 10 10 10 11 13 15 16 19 22 24 25 25 26 27 29 32 34 32 26 24 27 32 35 35 37 40 41 38 37 34 28 25 24 24 24 23 22 24 24 23 21 19 19 18 15 13 12 13 15 14 13 13 14 15 15 15
6 7 7 8 10 11 12 10 10 12 14 15 16 18 21 24 26 26 27 28 29 29 29 26 20 20 25 30 33 33 33 35 38 38 36 33 28 23 22 23 24 24 23 22 22 22 21 19 19 19 18 15 14 12 11 12 14 13 13 14 14 13 13
7 8 7 7 9 11 12 10 9 11 13 15 17 20 23 26 26 24 23 24 23 21 19 16 17 24 29 30 29 29 31 33 34 32 29 26 23 21 22 23 24 23 21 21 21 21 20 19 18 17 16 15 15 14 11 12 14 14 13 13 12 12 12
5 5 4 4 5 8 10 11 10 11 13 16 18 21 24 25 23 20 19 18 15 14 15 16 21 26 27 25 24 26 28 30 29 26 22 20 20 22 23 24 23 21 19 19 20 20 19 18 17 15 14 14 16 15 12 12 13 13 13 12 12 13 13
4 3 2 1 2 4 7 9 10 10 12 15 18 20 22 23 21 18 15 12 12 14 16 17 21 26 27 28 28 25 23 24 24 20 18 19 21 23 24 24 24 22 19 19 19 18 18 17 16 14 12 14 17 15 11 11 12 12 13 13 13 13 13
5 5 5 5 5 4 4 6 9 10 11 13 16 19 21 22 20 16 12 11 13 16 17 17 21 25 27 29 27 22 19 20 20 18 19 21 23 25 25 25 24 22 20 19 19 18 17 16 14 13 13 15 16 13 9 10 12 13 13 12 11 11 12
4 4 3 3 4 4 4 7 9 11 11 13 16 19 20 20 17 14 11 11 13 16 16 17 20 23 24 25 23 20 19 20 19 19 20 22 24 25 26 25 23 21 20 19 18 17 16 14 13 14 15 15 13 10 9 11 12 12 11 10 9 9 10
2 2 2 1 3 5 9 11 11 11 12 14 17 19 19 17 14 12 11 10 10 12 15 18 19 19 18 18 19 20 21 22 21 20 20 21 23 23 23 23 22 20 20 19 18 17 15 14 14 14 14 12 11 10 10 11 11 11 9 8 8 9 10
1 1 2 4 7 9 12 13 12 13 14 15 17 19 17 15 14 12 9 7 9 13 17 20 19 16 13 14 17 20 22 23 23 22 22 21 20 20 20 20 20 20 20 19 18 17 16 15 14 13 11 11 11 10 10 10 10 10 9 9 9 10 11
4 5 7 8 10 11 12 12 13 14 14 14 15 16 15 15 14 11 8 9 13 17 19 20 19 18 16 16 19 20 22 23 23 22 21 20 19 19 18 17 17 18 17 16 16 15 14 13 11 10 9 9 8 8 9 9 10 10 10 10 10 10 11
7 8 8 8 9 10 10 11 12 13 13 12 13 15 15 14 14 12 13 16 18 20 21 22 22 21 19 18 19 19 20 21 21 21 21 21 21 19 17 15 15 15 14 13 13 12 11 10 9 8 8 7 6 6 7 8 9 9 9 9 9 10 9
8 8 7 7 9 10 10 10 11 12 12 12 13 15 15 15 17 18 19 20 21 22 22 22 20 18 17 18 19 20 22 23 23 22 22 21 21 20 17 14 12 11 10 10 9 9 9 9 8 8 8 6 6 6 6 6 6 7 7 7 8 8 7
7 7 7 8 9 10 11 12 13 13 13 13 14 15 16 18 21 23 23 23 22 20 18 16 14 14 17 20 22 23 23 24 23 22 21 20 19 18 16 15 13 11 10 8 8 8 8 8 8 8 7 6 6 6 5 5 5 5 6 6 6 5 5

ECMWFFLT1_925_spd_024.txt.gz
Wind_Speed
12 13 13 12 13 14 14 15 19 22 24 26 28 30 31 32 33 33 33 35 36 35 35 35 35 35 35 35 34 34 33 32 30 29 28 27 27 26 24 23 22 21 19 18 17 16 15 14 13 14 15 13 11 10 10 10 9 8 8 8 7 7 7
12 12 12 13 13 14 15 17 20 23 24 27 29 30 31 32 32 34 34 35 37 37 36 36 36 36 35 35 35 34 33 32 31 30 29 28 27 26 24 23 22 20 19 18 17 16 15 14 14 15 15 13 11 12 11 11 10 9 9 9 8 8 8
12 12 13 14 14 15 15 16 19 23 26 27 28 30 32 34 36 38 37 36 37 37 35 36 37 37 36 35 35 34 34 33 32 31 30 29 28 26 24 22 21 19 18 18 17 16 15 15 15 16 15 13 12 12 12 12 11 10 10 10 9 9 9
13 15 15 15 15 15 14 14 19 24 27 30 32 34 36 38 39 38 37 37 36 36 37 38 38 37 36 36 35 35 36 35 34 32 30 29 28 25 23 22 20 19 18 17 17 16 15 15 16 16 15 14 13 12 13 13 13 11 11 11 11 11 11
14 15 13 13 14 13 12 14 19 24 27 30 33 34 36 38 36 35 35 35 36 37 38 37 35 36 36 36 36 36 37 36 34 32 30 28 27 25 24 22 20 19 17 16 16 15 15 16 16 16 15 14 13 13 14 14 13 13 12 12 13 12 12
12 13 13 13 13 13 14 16 20 26 29 31 34 36 36 35 34 35 36 35 35 35 35 34 34 36 37 37 36 36 36 36 34 32 29 27 26 25 23 21 20 18 17 16 16 16 16 17 17 16 15 14 13 13 13 13 13 12 12 13 13 12 12
12 13 13 13 13 14 15 15 20 26 30 31 32 32 30 31 33 35 35 34 35 34 34 35 37 38 37 35 35 35 36 35 34 32 29 27 25 24 22 21 19 18 17 17 17 17 18 18 17 16 15 15 14 13 13 13 13 12 12 13 13 13 13
13 13 14 14 14 14 14 13 17 23 26 26 26 26 28 30 32 33 34 36 37 36 36 38 39 38 36 35 36 37 37 36 34 32 29 27 25 23 21 20 19 17 18 18 18 18 19 18 17 17 17 17 16 15 14 14 14 14 14 14 15 15 15
11 12 13 14 14 13 12 12 16 21 23 24 26 28 30 31 32 34 36 38 36 35 38 39 38 37 35 35 36 37 37 35 34 32 30 28 26 22 20 20 19 18 19 19 18 19 18 17 18 18 18 18 18 17 16 17 17 16 16 17 17 18 18
10 11 12 12 12 11 9 10 13 16 18 22 25 27 29 31 32 34 34 34 34 36 38 38 35 34 34 35 35 35 36 34 33 33 32 31 27 23 21 21 20 19 21 20 19 19 18 17 18 19 19 20 19 19 19 19 19 19 18 19 19 19 19
9 11 11 10 10 9 9 10 12 12 15 21 24 26 29 30 31 31 32 32 34 35 36 35 33 33 33 33 33 33 33 34 36 36 33 30 26 22 22 23 22 21 21 21 20 18 17 18 19 20 21 22 21 20 20 21 21 21 20 19 18 17 16
10 10 10 10 10 9 10 11 11 12 15 20 23 25 27 28 29 30 31 33 34 34 33 32 31 31 32 32 31 33 35 35 32 27 23 22 21 20 22 24 23 22 21 21 20 19 18 19 20 21 23 23 22 22 22 22 22 21 20 18 15 14 13
8 7 8 9 8 8 9 10 11 12 14 18 22 24 26 27 29 30 30 31 32 31 29 29 30 32 32 32 34 35 32 24 19 19 20 22 21 21 25 27 25 23 22 21 20 20 21 22 23 23 23 24 23 22 22 21 21 19 17 15 13 12 11
7 7 7 7 8 9 10 10 11 11 12 16 20 22 24 25 26 27 28 28 28 28 28 30 32 32 32 33 34 29 24 23 24 30 33 31 28 29 29 29 28 24 22 21 22 22 23 24 25 24 23 24 22 20 19 18 18 17 15 14 13 12 12
10 10 9 9 9 9 10 10 10 10 11 14 17 19 21 23 23 24 26 26 27 29 31 33 33 33 33 33 30 26 29 36 40 40 37 34 34 34 32 32 30 26 23 23 23 23 24 26 27 25 23 23 21 19 18 17 18 17 16 16 15 14 14
12 11 11 10 10 10 10 10 10 9 8 10 15 18 20 21 22 24 25 26 29 31 33 34 34 34 33 30 29 31 36 42 42 39 38 37 37 36 34 32 30 27 25 24 23 23 24 27 28 26 24 23 20 19 19 18 18 17 16 16 16 15 15
12 12 10 10 9 9 9 8 8 8 7 10 15 18 19 20 21 23 25 27 30 33 34 34 33 32 31 30 32 35 37 39 38 36 35 33 33 33 31 30 30 29 27 25 24 26 28 28 27 26 25 23 21 20 20 19 18 16 14 14 14 15 16
11 10 9 9 9 9 9 9 8 8 8 10 14 16 18 19 19 21 25 28 30 30 29 29 29 29 30 33 34 35 36 38 34 30 30 29 29 30 30 30 29 28 27 25 26 29 30 29 27 27 26 24 23 23 22 20 18 16 15 15 15 16 18
9 9 9 9 9 9 9 8 7 8 9 10 13 16 18 19 21 24 27 28 27 25 26 27 29 30 32 34 34 35 36 35 30 29 28 26 23 26 28 28 28 27 27 27 28 30 30 30 29 28 27 25 24 25 24 21 19 17 17 17 18 18 19
9 8 8 7 7 7 7 6 6 8 11 13 16 18 20 22 25 28 28 27 26 26 27 29 30 32 33 34 33 32 31 29 28 29 29 27 26 26 25 24 26 26 26 27 30 31 30 30 29 28 27 27 26 26 25 23 21 19 19 19 19 18 17
8 8 7 7 7 7 6 6 7 9 13 17 18 18 21 23 26 26 25 25 26 27 29 31 31 31 31 31 29 28 27 27 28 29 29 32 33 28 24 24 27 26 26 30 31 30 29 29 29 28 28 28 26 26 26 24 22 20 20 19 18 16 15
8 8 8 8 8 8 9 11 12 13 15 16 17 18 20 22 23 22 22 24 26 27 29 30 28 27 26 26 26 27 28 30 30 29 30 31 32 29 27 29 31 30 31 31 30 29 28 28 28 28 28 28 27 27 26 25 22 21 20 18 16 15 14
7 8 8 8 8 10 13 14 15 15 14 15 16 16 17 18 20 21 21 23 24 25 26 25 24 24 24 25 27 29 31 33 33 32 32 34 34 33 33 34 34 34 32 28 26 26 26 26 26 26 26 27 27 27 26 24 22 19 18 17 15 15 14
5 5 5 6 7 9 11 12 13 13 12 13 12 12 13 15 18 20 21 22 22 23 23 23 23 24 26 28 30 32 34 34 32 32 34 36 36 35 35 35 34 32 29 25 23 25 25 25 25 25 26 28 28 26 25 23 20 17 16 15 14 14 14
6 5 6 7 9 11 13 14 14 13 11 10 10 9 11 14 18 20 20 20 21 21 21 22 24 26 29 32 33 33 35 34 32 32 35 37 36 36 36 35 31 28 26 24 24 24 24 24 24 26 28 29 28 26 23 21 17 14 13 13 13 14 14
7 6 8 11 11 13 13 13 12 11 9 8 9 9 11 13 16 18 18 18 19 19 19 22 26 29 31 32 33 34 36 35 34 35 37 37 36 36 35 33 30 27 25 24 24 24 24 24 24 26 28 28 27 24 21 18 15 12 11 12 13 15 15
10 11 12 12 12 14 14 11 8 7 5 5 7 8 10 13 15 16 15 14 15 15 18 22 26 29 30 31 33 35 37 37 36 36 37 37 36 34 33 31 30 28 26 23 22 22 23 25 25 26 26 25 23 20 17 15 13 11 11 13 14 15 15
11 12 12 13 14 13 13 10 6 4 4 4 6 8 10 12 13 12 11 11 12 14 17 21 25 28 30 31 33 35 36 36 35 35 34 34 33 31 30 30 29 28 26 23 22 23 25 25 24 23 22 21 19 17 16 14 11 10 11 13 14 14 13
9 8 8 11 11 9 9 9 6 3 3 4 6 8 10 12 11 9 9 11 12 13 16 19 24 27 29 31 33 33 33 33 33 32 31 30 30 29 27 27 26 25 24 23 24 24 25 24 22 20 19 18 16 16 15 14 13 11 12 13 13 12 11
8 7 7 8 9 7 6 7 4 2 2 4 6 8 10 12 10 9 10 11 12 14 16 19 23 26 29 30 31 31 30 30 30 30 28 28 28 27 25 23 22 23 24 24 24 24 23 21 20 19 18 17 15 14 13 13 13 13 13 13 12 11 11
7 8 8 8 8 6 4 2 3 3 4 5 7 9 10 11 11 11 11 12 14 16 18 20 23 26 27 28 28 29 28 27 27 27 27 27 27 26 25 23 22 25 27 25 24 23 21 19 19 19 18 16 14 12 10 10 11 13 14 13 11 10 10
6 7 8 7 7 5 2 1 3 5 6 6 7 8 9 10 11 11 12 14 15 17 18 21 24 25 25 25 26 27 27 26 25 26 26 26 26 26 26 26 26 28 28 25 22 20 19 18 18 17 15 14 12 10 9 9 10 12 12 10 9 9 9
3 3 5 4 3 2 2 3 5 6 6 4 4 6 7 8 9 10 12 14 16 17 19 21 23 23 22 23 24 25 25 26 26 26 26 26 25 25 26 27 28 28 26 23 20 19 18 17 16 15 14 13 11 10 9 9 10 10 9 9 8 8 8
1 2 3 2 1 3 5 6 6 6 3 1 2 5 7 8 9 10 12 14 16 18 19 21 22 22 22 23 24 24 24 25 25 26 26 24 22 22 21 22 23 23 22 20 18 18 17 17 16 14 13 11 10 9 8 8 10 10 9 8 8 8 9
1 1 3 2 3 4 5 5 5 5 4 3 4 7 9 11 12 12 12 13 14 17 20 21 21 21 22 23 23 24 23 22 21 22 22 20 18 17 15 15 17 18 17 15 15 15 15 14 13 11 9 8 8 7 7 8 9 9 8 8 8 9 10
3 2 2 2 2 3 4 6 7 6 5 6 7 8 11 14 15 15 14 13 14 17 20 22 21 20 22 24 24 24 24 22 20 20 19 17 16 15 13 12 12 12 12 11 11 12 11 9 8 7 7 6 6 7 7 7 8 8 8 8 9 9 9
4 4 7 9 8 8 9 9 9 7 7 7 8 10 12 15 16 17 17 16 16 18 20 21 20 19 20 21 21 22 22 21 20 18 16 15 15 16 15 12 10 9 9 8 8 7 7 6 5 5 5 5 6 6 7 6 5 5 5 6 7 7 7
11 10 9 9 7 7 9 11 10 9 8 8 9 11 13 15 16 17 18 18 18 18 20 21 19 19 19 19 18 18 18 18 19 18 16 15 17 17 17 15 13 11 9 8 7 7 6 5 5 5 6 6 6 6 5 4 3 3 3 4 5 5 5

ECMWFFLT1_925_spd_030.txt.gz
Wind_Speed
16 18 18 17 17 17 17 18 19 22 24 25 26 27 27 27 26 25 24 25 27 27 27 26 25 25 26 26 26 25 24 22 21 20 20 19 19 18 16 16 15 14 14 13 12 13 12 12 11 11 10 9 9 9 9 8 8 6 5 5 5 5 5
16 16 17 17 17 18 19 19 21 23 24 25 26 27 28 27 27 27 25 26 28 28 27 27 27 26 26 25 25 25 25 23 21 20 19 18 18 17 17 17 16 14 14 14 12 12 12 12 11 11 10 10 9 9 9 9 8 7 6 6 6 6 5
15 15 17 18 17 18 19 20 22 24 25 26 26 27 28 28 29 30 28 27 28 28 27 27 28 28 26 25 25 25 26 24 22 21 20 19 19 18 18 17 15 14 14 14 12 11 11 12 11 11 10 10 9 9 10 9 8 7 6 6 6 6 6
15 16 17 18 18 18 19 20 21 25 27 27 28 28 29 30 30 30 29 28 28 28 28 28 29 28 26 26 26 25 25 25 23 22 22 21 20 18 18 16 15 14 14 13 12 11 11 11 11 11 11 10 9 9 10 9 8 7 7 7 7 7 7
16 16 16 17 17 17 17 18 20 25 27 27 28 28 29 31 30 29 28 28 29 30 31 30 27 26 25 25 25 24 24 25 25 24 22 21 19 18 17 16 14 14 14 13 12 12 11 10 11 11 11 11 10 9 9 9 8 8 8 8 8 8 8
14 15 15 15 16 17 18 19 21 26 28 28 28 28 29 30 29 28 28 28 29 29 29 29 27 26 26 26 25 24 23 25 26 25 22 19 18 18 18 17 15 15 14 13 13 13 12 12 12 12 12 11 10 9 9 9 8 8 9 9 9 8 8
12 14 15 15 16 17 18 18 20 25 27 27 27 27 28 28 28 29 29 28 29 28 28 28 28 27 27 27 27 25 26 27 26 24 21 18 18 19 18 18 18 17 16 16 16 16 14 13 13 13 12 10 10 9 8 8 9 9 10 10 10 9 8
11 13 14 15 15 16 16 16 18 22 24 25 26 26 27 27 26 28 28 27 28 28 28 29 29 28 27 27 27 27 28 27 24 22 20 19 20 21 20 20 21 21 20 19 19 18 17 15 15 14 13 12 11 11 10 10 11 10 11 11 11 10 10
11 12 13 13 14 14 13 14 16 19 22 24 25 25 26 26 26 27 28 27 27 27 29 29 29 28 27 27 27 28 28 25 22 21 20 20 22 24 23 23 23 25 25 22 20 20 20 18 18 18 17 17 17 15 13 13 13 12 12 12 11 11 11
9 10 11 11 13 12 12 13 15 16 18 21 23 24 25 26 26 26 26 27 27 27 29 29 28 27 27 27 27 27 26 23 22 22 21 22 25 27 26 25 25 27 27 24 22 22 23 21 21 22 22 21 20 18 16 15 14 13 13 12 12 12 12
7 8 9 11 12 12 13 14 14 14 15 18 22 23 24 25 25 25 25 26 26 26 28 28 27 26 26 27 27 26 24 23 23 23 23 26 29 30 28 25 25 28 29 26 24 24 25 25 24 25 25 24 22 19 18 17 15 14 13 13 13 13 14
7 8 9 11 12 13 13 13 13 14 14 17 21 22 23 24 24 24 24 25 26 25 25 26 26 26 26 26 26 25 24 24 24 24 26 30 31 30 28 26 26 29 31 30 27 26 26 27 28 27 27 27 24 21 21 19 16 15 14 14 13 14 15
6 7 8 10 11 12 13 13 15 16 16 18 21 22 23 24 24 24 23 24 25 24 24 25 25 25 24 24 24 24 25 26 25 25 28 32 31 29 29 28 28 30 32 31 28 27 27 28 29 29 29 29 26 23 23 21 17 17 17 16 15 16 17
8 8 9 11 12 14 15 14 15 16 16 18 21 22 22 23 23 23 23 23 24 24 23 22 23 24 23 22 22 23 24 25 25 25 29 32 30 28 29 28 27 28 30 30 29 29 30 30 29 30 30 29 27 24 22 21 19 20 21 21 21 20 19
9 10 12 13 14 15 15 15 15 16 16 17 20 22 22 22 22 23 22 22 23 23 22 21 22 22 21 20 21 21 22 23 23 24 29 32 29 27 27 28 28 29 31 33 31 30 31 31 30 31 32 29 26 23 22 22 23 24 24 24 22 20 18
10 11 13 14 15 15 15 15 15 16 16 17 19 22 22 21 22 22 22 21 22 22 21 20 20 21 21 20 20 21 22 23 23 23 28 31 29 26 26 28 32 35 38 39 34 30 30 31 30 31 30 29 27 24 23 24 25 25 25 23 21 19 17
11 12 13 14 14 15 15 15 15 16 17 17 19 22 22 21 21 21 21 21 21 22 22 21 20 20 21 21 20 22 23 23 23 25 28 31 30 27 28 30 35 38 41 40 37 34 32 31 30 27 25 25 25 25 25 25 25 25 25 23 22 21 20
12 13 13 13 14 14 15 16 17 18 18 18 20 22 21 21 20 20 21 21 21 21 21 21 20 19 20 21 21 23 23 23 25 28 29 30 29 28 28 32 35 37 37 36 36 35 32 30 28 24 22 22 21 22 24 25 25 26 24 23 22 22 22
11 11 11 12 13 14 15 16 16 16 17 18 20 22 22 22 21 20 21 20 20 20 20 20 19 18 19 20 21 23 23 23 26 30 31 30 30 28 27 29 32 33 31 29 29 29 28 26 24 22 21 21 21 23 24 24 25 24 22 23 23 23 22
9 9 9 10 11 12 13 13 13 15 17 18 19 20 21 21 19 19 19 19 18 19 19 19 18 17 18 19 20 22 23 23 25 28 30 30 30 29 28 26 27 28 26 24 24 25 25 22 20 18 18 21 23 23 20 19 21 23 22 24 24 23 23
9 9 9 10 11 11 13 13 13 14 17 18 18 18 18 18 18 18 18 18 18 18 18 18 18 18 18 19 21 22 23 24 25 27 29 29 28 29 29 27 25 24 23 23 24 24 24 21 17 16 19 22 22 19 17 16 18 20 21 23 24 23 22
10 10 10 11 12 12 14 15 15 16 17 18 19 18 17 17 17 18 18 18 18 18 18 18 18 18 18 19 21 22 23 25 26 28 29 28 27 28 30 29 26 23 20 20 22 24 26 24 20 19 23 24 20 17 18 17 17 18 19 22 24 23 22
10 11 12 12 12 14 16 17 18 18 18 18 19 19 18 17 17 17 18 18 17 17 17 17 17 17 17 18 20 21 23 25 27 27 27 27 28 29 30 29 25 22 21 21 21 22 23 22 21 20 22 22 21 20 19 17 15 16 19 21 23 23 22
8 11 12 12 13 15 17 19 19 19 18 18 19 19 18 18 18 17 16 16 16 16 16 16 16 16 16 18 19 19 22 24 25 25 26 27 29 28 28 27 23 22 27 26 21 19 19 20 19 19 20 23 24 22 19 16 15 17 19 21 22 22 21
9 11 12 14 15 16 17 19 20 20 19 19 19 19 19 19 18 17 15 15 15 16 15 15 15 15 16 17 17 17 19 22 23 25 25 27 28 27 27 25 21 21 26 25 19 17 19 20 20 19 21 25 25 22 18 15 14 16 19 19 19 19 18
10 12 12 15 17 18 19 20 21 21 20 19 19 20 20 20 18 16 15 15 15 15 14 13 14 14 15 16 16 16 18 21 22 23 25 25 25 25 23 20 18 18 20 19 19 19 20 21 22 22 23 24 23 19 16 13 14 16 18 18 18 17 17
11 12 13 15 17 19 20 20 20 20 19 18 18 19 19 19 17 16 15 15 14 13 12 12 13 13 14 15 15 15 17 19 19 22 25 24 22 21 18 17 19 20 18 18 20 21 22 23 22 22 22 22 19 15 12 11 12 14 17 18 17 16 16
14 14 15 17 17 18 20 20 20 20 19 18 18 18 17 17 16 15 14 13 12 11 11 11 12 12 13 14 14 14 15 17 18 20 21 20 18 17 17 17 19 21 19 19 20 21 23 23 21 20 19 17 14 11 9 9 11 13 15 16 14 14 16
16 16 17 17 16 17 19 18 18 19 18 17 17 16 16 16 15 14 13 13 12 12 11 12 12 12 12 12 12 13 14 15 17 19 18 16 17 19 18 17 18 20 21 20 20 21 23 22 20 18 16 13 10 8 6 6 8 11 12 13 13 14 16
18 17 17 17 18 19 19 17 17 17 16 15 14 14 14 14 15 14 13 13 13 12 12 12 11 11 11 10 10 12 13 14 16 18 17 17 18 19 18 17 18 20 20 20 20 21 22 21 18 16 14 11 8 6 4 4 6 9 12 13 14 14 14
17 17 17 17 18 19 19 18 18 17 16 13 12 11 11 12 14 15 14 13 13 13 13 12 12 11 10 9 9 11 13 14 15 16 17 17 18 19 18 18 18 19 19 19 21 21 21 19 17 15 13 10 7 5 3 3 5 6 10 12 14 14 13
14 15 15 15 16 17 19 19 18 17 16 14 12 10 9 9 11 13 13 12 12 12 13 13 12 10 10 10 10 11 12 13 14 15 16 17 16 17 18 18 18 18 18 19 21 21 20 18 16 15 13 10 7 6 5 6 7 7 8 12 13 14 14
14 14 14 14 14 14 16 16 16 16 16 14 12 10 9 9 10 10 10 10 11 11 12 12 11 10 10 10 10 11 12 14 14 13 14 15 16 16 17 18 18 17 18 20 20 20 19 17 15 14 13 11 8 6 4 6 9 8 7 10 11 12 13
13 14 15 15 15 15 15 14 14 15 15 14 12 9 9 9 8 9 9 8 9 11 11 10 10 9 9 9 10 10 11 13 14 13 13 14 14 14 14 15 16 17 18 19 19 19 18 16 15 14 13 10 7 4 4 7 8 9 10 11 11 10 9
13 13 14 16 15 15 15 14 14 15 15 14 11 9 8 8 7 8 8 8 9 10 9 9 8 8 8 8 8 9 10 12 13 14 14 13 13 10 8 7 7 9 11 13 13 15 17 16 14 12 11 8 7 7 9 10 10 12 15 16 15 13 11
12 12 14 15 15 15 15 14 14 15 14 12 10 9 8 7 6 6 7 8 8 8 8 8 7 7 7 8 8 9 10 11 12 14 14 12 13 12 8 6 4 4 7 9 10 11 13 14 13 11 11 11 10 11 12 12 13 17 19 19 18 18 16
12 11 12 13 13 14 14 14 14 14 13 11 9 8 7 7 6 5 6 6 6 7 7 7 7 7 7 8 9 9 11 11 11 12 12 10 12 13 10 7 6 5 6 8 10 11 12 13 13 12 13 14 13 14 14 12 13 17 19 20 20 20 19
14 13 12 12 12 12 12 12 12 12 11 9 8 8 7 7 6 5 5 5 5 5 6 7 7 7 7 8 8 8 10 9 7 9 12 11 11 12 12 11 10 8 6 5 8 11 13 14 14 15 16 16 14 15 16 15 14 14 16 17 18 18 16

ECMWFFLT1_925_spd_033.txt.gz
Wind_Speed
16 16 16 17 18 19 19 20 21 23 27 29 30 32 33 32 31 29 28 29 30 29 29 28 27 27 26 26 25 24 23 22 21 20 20 20 19 18 17 16 15 15 14 14 13 13 13 12 12 11 11 10 9 9 9 9 8 7 6 6 6 5 5
17 16 18 19 19 20 21 21 22 25 28 30 31 32 33 32 32 31 29 30 30 30 30 29 28 27 27 26 25 25 24 23 22 21 20 20 19 19 18 18 17 15 15 15 14 13 13 13 13 12 12 11 11 11 10 10 10 8 7 7 6 6 6
15 16 18 20 19 19 21 21 22 26 29 30 32 32 33 33 33 33 31 30 30 30 29 29 29 28 27 26 25 25 25 25 23 23 22 21 20 20 19 18 17 16 16 16 15 14 14 14 14 13 12 12 11 11 11 11 11 10 8 8 8 7 7
14 17 18 19 20 19 20 21 22 26 31 33 34 34 34 35 34 34 32 30 31 30 30 30 29 28 27 26 26 26 26 26 25 24 23 22 21 21 20 19 19 18 17 17 17 15 15 15 15 14 14 13 12 12 12 12 12 11 10 9 8 8 7
13 14 16 18 19 18 18 20 22 26 31 33 34 34 34 34 34 33 32 31 31 31 31 30 28 27 26 26 26 26 26 26 25 24 24 22 22 22 21 21 21 20 19 19 19 18 17 17 17 16 15 14 14 14 15 14 14 13 13 12 12 10 9
11 12 15 16 17 18 19 21 23 28 31 33 34 33 33 34 34 33 32 31 31 31 30 29 28 27 27 27 27 26 25 26 25 25 25 23 23 23 22 22 22 22 21 21 21 20 20 20 19 18 17 17 17 17 18 18 18 17 16 15 15 13 11
14 14 16 16 16 18 20 20 22 28 31 32 32 32 32 33 33 33 32 31 31 31 31 30 29 29 28 28 28 27 26 26 26 26 25 25 24 24 23 23 23 22 22 22 23 23 23 22 21 21 20 20 19 20 20 20 20 19 17 16 15 13 12
16 14 15 16 16 17 18 18 20 24 28 30 31 32 33 33 32 33 32 31 31 31 31 31 31 30 30 29 28 28 27 26 27 27 26 26 26 25 25 24 24 23 23 24 25 25 26 25 24 23 22 21 21 20 20 20 19 18 17 17 15 14 12
14 14 14 15 16 16 16 16 17 20 24 28 29 31 32 33 32 32 32 31 31 31 32 32 31 30 30 29 28 28 28 27 27 27 28 28 27 27 27 26 25 25 25 27 27 26 27 26 25 25 24 23 22 21 20 19 19 18 18 17 16 15 13
10 13 13 13 13 13 13 15 15 16 18 21 24 28 31 31 31 31 32 31 31 31 32 32 31 30 30 29 28 28 28 28 27 28 29 29 28 28 28 26 26 26 27 28 28 27 27 27 26 26 26 24 23 23 21 19 19 19 19 18 17 16 14
8 9 11 12 12 12 13 14 14 13 13 15 21 25 28 29 30 31 31 32 31 31 31 31 30 30 29 29 28 28 28 29 28 29 30 30 29 28 28 27 26 27 28 29 29 27 28 28 27 28 28 26 24 23 21 21 21 20 20 19 18 18 17
9 9 10 12 12 12 13 12 13 14 13 15 21 25 25 27 29 30 30 31 31 30 30 31 30 30 29 28 28 29 29 29 29 30 31 31 29 28 28 27 26 27 28 29 28 27 28 28 28 28 28 26 24 23 22 22 23 22 21 20 19 20 19
10 10 10 12 12 12 12 11 13 15 15 17 22 24 24 26 28 28 29 30 30 29 29 30 30 29 29 28 28 29 29 30 30 30 30 30 29 27 27 27 27 27 28 28 28 27 28 28 28 28 28 28 27 24 23 24 23 22 23 23 21 20 19
12 12 12 12 12 13 13 12 14 16 16 17 21 23 24 25 26 26 27 29 29 28 28 28 29 29 29 28 28 28 28 29 29 29 29 28 27 26 26 26 26 27 28 28 29 29 28 28 28 27 27 27 26 24 24 24 23 22 23 25 24 22 19
14 13 13 14 14 14 14 14 14 16 17 18 20 23 24 24 25 25 25 27 28 27 27 27 28 28 28 27 26 26 26 26 26 27 26 25 25 26 26 26 25 26 27 28 30 29 28 28 28 27 28 28 27 25 25 25 23 24 24 25 26 22 18
14 13 13 14 14 14 14 15 16 16 17 17 19 22 24 23 24 25 25 26 27 26 26 26 27 28 27 26 25 25 25 25 25 24 24 24 24 24 24 24 24 25 26 27 29 28 27 27 28 28 30 32 30 27 25 23 24 27 28 27 26 22 18
14 13 11 11 12 14 14 15 16 17 18 19 20 23 24 23 24 25 25 25 26 26 26 26 27 27 26 25 24 24 24 25 24 23 23 23 23 23 22 22 22 23 25 26 28 28 27 27 29 29 30 32 31 29 26 24 25 30 32 30 26 22 19
13 13 11 8 9 12 14 16 17 19 20 20 22 25 25 24 24 25 25 25 26 26 26 26 26 26 25 24 23 24 24 24 23 22 22 22 23 24 22 20 20 22 23 24 26 27 25 26 28 29 28 29 29 29 27 25 26 31 33 31 28 24 20
15 15 14 9 9 11 15 16 17 19 19 19 23 27 26 25 25 24 24 25 25 26 26 25 25 25 24 23 23 24 23 23 22 22 22 22 22 23 22 21 22 22 21 23 25 25 23 25 27 27 26 26 26 27 26 24 25 30 30 29 29 25 20
18 18 17 11 9 11 14 15 15 17 20 21 23 26 26 24 23 23 23 24 25 26 26 25 24 23 23 23 23 23 23 23 22 22 21 21 21 21 20 21 23 22 22 23 24 24 23 24 26 26 24 24 25 25 23 21 24 28 28 28 27 23 20
18 18 17 11 10 13 14 15 14 16 19 22 24 25 25 24 23 24 24 24 25 25 25 24 23 22 22 22 22 22 22 22 22 21 19 19 20 20 21 22 22 21 23 24 23 24 23 23 25 25 23 23 23 23 21 19 23 27 26 26 26 22 22
21 20 17 12 11 13 14 16 17 18 20 23 24 25 25 24 24 24 24 24 25 24 24 23 22 22 22 22 22 22 22 21 21 20 19 19 20 20 20 21 20 19 21 21 21 23 24 22 23 24 23 23 23 23 20 18 21 24 24 25 25 23 24
20 20 16 13 13 14 16 18 20 22 23 24 25 25 25 24 24 24 24 24 24 23 23 23 21 21 22 21 21 21 21 21 20 20 19 18 19 19 19 19 19 18 18 17 17 19 22 22 23 24 24 23 23 22 20 18 19 21 22 23 24 23 24
18 16 12 12 14 16 18 20 22 24 25 25 25 26 26 25 25 25 23 23 23 23 22 21 20 20 20 20 20 20 20 20 19 19 19 18 18 18 18 19 19 18 17 18 18 18 21 24 23 22 23 23 22 21 21 20 19 20 21 21 21 22 21
17 14 11 12 15 16 18 21 22 24 25 25 26 27 28 27 26 25 23 22 22 22 21 20 20 20 19 19 20 20 19 19 18 18 18 18 18 18 17 17 16 15 16 19 18 18 21 23 20 19 20 21 20 19 19 19 20 21 21 20 19 19 18
14 14 12 13 15 17 19 21 21 22 23 24 25 27 29 27 26 24 22 21 21 19 19 19 19 19 19 19 19 20 19 18 18 17 17 18 18 17 16 15 14 15 17 19 16 14 17 19 17 16 17 16 17 21 23 22 22 23 23 21 18 17 17
11 11 12 13 16 18 19 20 20 20 21 22 24 25 26 25 23 21 21 20 19 17 17 18 18 18 18 18 18 18 17 16 16 17 17 17 17 17 16 16 15 16 18 19 16 15 19 19 16 15 15 15 18 22 24 24 23 23 23 21 17 16 17
10 11 12 14 17 19 18 17 18 19 20 21 22 21 21 21 20 19 19 18 17 16 16 17 17 16 16 16 16 16 15 14 15 16 16 16 16 16 17 16 15 17 18 18 17 18 22 23 18 15 17 18 19 20 21 21 21 21 20 18 16 16 17
10 11 12 14 16 19 18 16 17 19 21 22 21 20 20 20 19 19 18 17 17 17 17 16 15 15 14 14 14 14 14 13 14 14 15 15 16 16 16 15 15 15 17 17 16 17 19 22 21 19 17 17 19 20 19 18 19 19 18 16 16 16 17
10 11 13 14 16 19 19 17 17 20 22 22 22 21 21 22 21 20 19 19 18 18 18 17 16 15 13 12 12 12 12 12 13 13 13 14 16 15 14 14 14 15 17 18 17 16 16 18 21 20 18 17 18 18 16 16 16 16 15 14 15 16 16
11 12 14 14 17 20 21 20 21 23 23 23 23 22 21 22 22 21 19 18 18 18 18 17 17 16 14 12 11 12 11 11 12 13 12 13 15 14 14 14 15 16 18 18 16 16 17 18 19 18 18 18 17 16 16 16 16 15 13 10 11 14 16
13 14 15 15 18 21 23 23 22 22 22 23 22 22 20 20 20 20 19 17 17 17 17 17 17 16 14 12 11 11 11 11 12 12 11 11 12 12 14 16 16 16 17 18 17 17 17 17 18 18 18 18 17 16 17 16 16 17 14 10 10 13 16
14 15 16 17 18 20 21 19 18 18 20 20 20 20 20 18 18 18 18 18 18 17 17 17 16 15 14 12 10 10 10 11 11 11 12 12 12 12 14 17 16 16 17 18 18 18 17 16 18 19 19 19 18 17 17 16 15 14 13 12 12 13 15
14 16 17 18 19 20 19 17 16 17 18 17 17 17 18 17 17 17 17 17 18 18 18 17 16 14 13 11 10 9 9 10 11 11 12 12 11 12 13 15 15 17 18 18 18 17 17 18 20 21 21 21 19 18 17 15 13 13 13 15 16 15 16
14 16 17 18 19 19 19 18 18 18 17 16 16 16 16 15 15 15 15 16 18 18 18 17 16 14 13 11 10 9 9 10 11 12 12 12 12 10 10 10 11 11 12 13 14 15 15 18 21 21 21 20 18 17 15 14 14 15 15 14 15 15 16
14 15 16 18 19 19 19 18 18 19 18 16 15 15 15 14 14 13 13 14 14 15 16 16 14 13 12 11 10 11 11 11 12 13 12 14 16 14 11 8 7 7 8 9 12 13 13 15 18 19 18 17 16 16 14 13 15 16 15 15 16 16 16
13 13 15 17 17 16 17 17 17 17 16 15 14 14 14 14 13 12 11 11 11 12 13 13 11 10 11 11 9 10 10 10 12 13 13 15 17 16 14 11 9 9 9 9 9 11 12 13 15 17 16 15 16 16 13 12 15 17 16 15 16 16 16
15 14 14 15 15 14 15 15 15 14 14 14 13 14 13 13 12 11 10 10 10 10 11 10 9 8 9 9 7 8 7 7 9 11 12 14 16 16 16 16 13 11 10 11 12 12 12 14 15 16 16 14 14 15 14 14 17 18 17 16 15 14 14

ECMWFFLT1_925_spd_036.txt.gz
Wind_Speed
16 16 15 12 11 13 14 15 16 18 21 25 29 32 33 32 32 31 31 33 34 33 34 34 33 33 33 32 31 29 29 27 26 26 24 23 22 22 22 22 22 21 20 20 19 18 17 15 16 16 16 16 15 15 15 15 15 13 14 15 13 13 14
16 16 16 15 14 14 16 16 16 19 23 25 29 32 33 33 33 32 31 33 35 34 35 35 34 34 34 33 31 30 30 28 27 27 25 24 24 23 23 23 23 22 21 21 20 19 19 18 17 17 17 17 16 16 17 17 17 15 15 16 14 14 14
17 16 16 16 15 15 16 16 16 22 27 27 29 32 34 34 35 35 34 34 35 35 34 35 36 35 34 33 32 31 31 29 28 28 26 25 25 24 23 23 24 24 22 22 22 22 21 20 19 19 19 19 18 18 18 18 18 16 16 17 15 14 14
18 18 16 15 15 15 16 16 16 22 29 31 32 34 35 36 36 36 35 35 36 35 35 36 36 36 35 33 32 31 32 31 30 29 27 26 26 26 25 24 25 25 23 22 23 23 23 22 22 21 21 20 20 20 20 19 19 19 17 17 17 15 14
19 18 17 16 15 13 14 16 17 22 28 32 33 34 35 36 36 35 35 35 35 36 37 37 36 35 35 34 32 31 33 33 31 30 29 27 27 27 27 26 26 26 25 24 24 24 24 25 24 24 23 22 22 21 22 21 21 21 19 17 18 17 16
18 17 16 16 15 14 15 18 20 24 29 31 32 32 33 35 36 36 35 35 35 35 36 36 35 35 35 34 33 31 33 34 32 32 31 29 28 28 28 28 27 27 27 27 27 26 27 27 26 26 25 24 23 23 24 23 22 22 21 18 18 18 17
19 17 16 14 14 15 17 18 20 24 28 29 30 31 33 35 36 37 36 35 36 36 36 35 35 36 36 35 34 33 33 34 34 33 32 31 30 29 29 28 29 29 28 29 29 29 29 29 29 29 28 26 25 25 25 24 23 23 23 21 21 20 19
18 14 13 13 14 15 15 15 16 20 25 27 29 31 34 35 36 37 37 36 36 36 36 36 35 36 36 35 34 34 34 34 35 35 33 32 31 30 30 30 30 30 29 30 31 31 31 32 31 31 30 29 28 28 27 27 25 24 24 24 23 23 21
17 15 13 14 15 14 13 12 13 16 21 26 28 31 33 34 35 37 38 37 37 36 36 36 35 35 36 35 35 35 35 34 35 35 34 33 32 31 30 30 31 31 30 30 31 31 32 33 33 33 33 32 31 30 30 29 28 26 26 25 24 25 23
16 16 14 14 14 14 13 12 12 13 16 21 25 28 31 33 34 36 37 37 37 37 37 36 34 34 35 36 35 35 35 35 35 35 34 33 32 32 30 30 31 32 32 31 30 31 33 33 33 34 35 34 33 33 33 32 30 28 27 26 27 28 26
15 14 13 14 15 14 14 13 13 13 13 16 21 25 28 31 31 32 35 37 37 37 37 37 34 33 35 35 34 35 36 36 35 34 35 34 31 31 31 30 30 31 32 32 30 31 32 33 33 34 35 35 35 35 35 34 33 31 30 30 30 30 28
15 14 15 16 15 15 15 14 14 15 13 15 21 24 26 29 30 31 33 35 36 35 36 36 35 34 34 34 34 35 36 37 35 34 35 35 32 31 32 31 30 30 31 31 31 30 32 34 34 34 36 36 34 35 36 35 35 34 33 33 31 28 27
12 11 12 14 12 12 13 12 14 16 15 15 21 26 26 29 30 30 31 33 34 34 35 36 36 35 35 34 34 35 36 37 37 35 34 35 34 32 32 32 31 30 31 31 30 30 31 33 34 34 35 35 34 35 36 35 35 35 35 33 30 27 27
12 12 13 11 9 11 11 11 13 15 15 15 20 25 26 28 31 30 30 32 33 32 33 35 35 36 35 34 33 35 36 36 36 35 34 35 35 33 32 32 31 31 32 32 30 30 30 31 32 33 34 34 34 35 35 35 34 34 33 31 29 28 28
10 10 13 12 11 11 11 10 10 12 13 13 16 21 23 25 29 30 29 31 33 32 32 34 35 35 35 34 33 34 35 34 34 34 34 34 34 34 33 32 32 31 31 33 32 31 29 29 31 33 33 34 34 33 34 34 33 32 33 33 32 30 29
10 7 9 10 10 10 9 9 10 11 12 12 13 17 21 22 26 29 28 30 32 33 32 35 35 34 34 34 33 32 32 32 32 33 34 33 34 34 33 32 31 30 30 32 33 32 30 30 31 33 33 34 35 33 32 32 31 32 36 36 34 32 30
14 15 13 11 11 10 9 9 10 11 12 13 14 17 20 21 24 27 27 28 31 33 32 34 35 34 34 34 32 31 31 32 32 31 33 33 32 33 32 31 29 29 28 29 31 31 30 30 32 33 32 33 35 35 33 32 32 34 37 36 34 33 31
14 16 15 13 13 13 13 13 13 14 14 14 15 19 21 21 22 24 27 29 31 32 31 32 34 34 33 33 32 31 31 31 31 30 31 31 29 29 29 28 27 26 26 26 27 30 30 30 32 34 32 31 33 34 34 33 33 35 36 35 35 34 30
13 11 13 14 14 14 15 15 14 15 16 16 18 23 26 25 24 25 27 28 31 32 30 31 32 32 32 31 30 30 30 30 30 28 27 27 25 25 25 25 24 23 23 23 24 27 30 30 31 32 32 30 30 31 33 33 34 35 35 36 37 35 30
11 10 11 13 15 15 15 14 14 15 17 20 24 27 28 27 26 26 26 26 28 31 29 28 30 30 30 29 28 29 28 28 28 26 25 25 24 23 23 24 24 23 23 23 24 26 28 28 29 30 31 29 29 30 32 32 34 36 36 36 37 35 31
9 9 7 8 13 16 15 14 13 14 17 22 26 26 26 27 26 26 27 26 28 30 28 27 28 28 28 28 27 28 27 27 27 26 25 25 24 23 23 24 24 23 22 22 21 22 25 27 27 29 29 29 30 32 32 31 33 35 35 36 37 36 32
12 12 10 7 9 13 16 16 16 18 20 22 25 25 26 27 27 26 27 27 27 28 27 26 26 26 27 27 27 28 28 27 27 26 25 25 24 22 21 22 22 21 21 20 18 20 24 26 26 28 29 29 30 31 30 30 31 33 35 37 38 38 34
16 15 13 11 10 9 16 21 21 23 24 24 25 27 27 28 28 27 27 27 27 27 26 25 25 26 26 27 27 28 27 26 25 24 24 24 23 20 19 19 19 19 19 19 17 18 23 25 26 28 29 29 29 30 29 29 30 32 35 38 38 38 35
20 20 16 13 15 13 16 23 24 25 28 27 26 28 28 28 28 27 26 26 27 27 26 24 24 25 25 25 25 25 25 24 23 22 22 22 21 19 17 16 17 17 18 18 16 17 21 25 26 27 28 28 29 29 29 28 29 32 34 36 37 37 36
20 22 18 15 15 13 14 22 26 27 28 26 25 28 30 29 29 27 25 26 28 27 25 24 25 25 24 23 23 23 23 23 22 21 21 21 21 20 19 18 18 17 18 18 17 16 18 23 24 25 26 26 27 28 28 27 28 30 32 34 35 35 33
12 14 14 14 11 5 11 16 19 20 21 22 25 29 31 30 28 26 25 26 27 26 25 25 26 25 24 24 24 24 24 24 24 24 23 23 22 21 20 20 18 17 17 17 17 15 16 20 22 22 23 23 23 26 27 26 26 28 29 31 33 32 31
7 8 11 15 11 14 16 14 15 16 18 22 26 28 28 28 25 23 23 24 24 24 25 27 27 27 26 26 26 25 25 25 26 25 23 23 22 20 19 19 17 16 17 16 15 15 15 16 17 18 20 22 23 25 27 27 26 26 26 28 29 29 28
8 10 12 11 13 19 16 13 15 18 19 22 25 26 27 26 23 21 22 21 21 24 27 29 29 29 28 28 27 26 24 24 23 22 20 21 21 19 19 18 16 16 17 15 15 16 16 15 15 17 19 20 21 23 26 27 28 26 24 27 28 26 25
3 5 5 2 9 16 15 11 12 16 19 23 25 26 27 26 23 22 21 20 21 25 28 29 30 29 28 27 26 24 22 22 21 19 18 18 19 18 18 16 15 16 17 16 16 17 16 15 16 18 18 17 17 20 23 27 31 31 27 28 29 27 25
2 3 2 2 5 11 13 10 10 14 18 22 24 25 26 26 23 21 20 21 24 28 29 30 30 28 27 26 25 24 23 23 21 19 18 18 17 16 16 15 15 16 17 17 17 18 18 18 19 18 18 17 17 19 23 27 31 33 31 30 31 29 27
6 2 4 5 6 9 10 10 10 13 15 19 22 24 25 25 24 21 20 24 28 30 30 31 30 28 27 26 25 24 24 23 21 19 19 19 17 15 16 16 14 16 18 18 18 17 17 18 19 19 18 19 19 20 21 22 24 28 30 31 32 29 26
12 10 6 1 3 9 13 13 12 12 13 17 22 23 22 24 25 23 24 27 29 29 29 30 29 27 26 25 24 24 24 23 22 20 19 18 17 15 16 16 15 15 18 18 15 13 13 15 18 19 18 18 20 19 17 18 20 24 26 28 30 29 26
14 15 15 15 14 6 5 9 10 12 12 14 20 23 25 26 25 25 27 28 28 27 29 29 27 25 24 24 23 23 23 22 22 22 20 20 19 17 16 15 15 15 17 16 12 11 13 15 16 18 17 18 19 17 17 19 21 24 26 26 27 26 24
11 13 14 19 25 22 12 8 6 7 8 10 16 23 25 26 26 26 27 26 25 26 27 26 24 23 22 21 20 19 19 19 20 20 18 18 19 18 16 14 14 15 15 15 14 14 15 17 18 17 18 18 18 17 18 19 21 25 26 26 24 23 23
7 10 10 9 12 12 10 8 5 5 7 10 16 21 22 23 24 23 24 24 24 25 25 24 22 21 19 18 17 16 17 18 18 17 17 17 17 16 15 13 12 12 12 13 16 16 14 15 18 19 19 18 19 20 19 18 19 23 25 23 21 21 23
5 7 7 3 1 5 8 7 6 10 13 15 19 21 21 22 22 22 22 22 21 23 24 22 21 20 18 17 16 16 16 16 15 15 19 19 17 17 15 12 10 9 9 9 13 14 12 11 14 16 16 13 16 21 22 19 20 22 22 20 18 19 21
5 2 7 6 6 7 10 11 12 15 17 17 18 19 20 21 21 20 20 19 18 20 21 20 18 17 15 15 17 17 16 14 14 17 19 19 18 18 17 14 10 8 6 5 8 11 11 9 10 12 13 12 16 20 19 17 18 19 18 18 19 19 19
3 3 9 11 11 12 13 14 15 17 17 17 18 19 19 19 19 18 18 17 16 16 16 15 14 14 13 14 19 19 15 13 17 20 19 17 18 18 18 17 14 10 8 6 5 6 8 7 7 10 14 16 18 16 13 14 16 17 17 19 20 20 18